24hr Temperature Data

Temp.
(°C)
Wind Chill
(°C)
Dew Point
(°C)
Solar Hours
(hh:mm)
Solar Radiation
(w/m2)
Min
-2.9 -10.5 -10 00:00 0.0
Max
8.5 17.4 3.9 05:13 190.0
Range
11.4 27.9 13.9 n/a 190
Mode
-1.2 -8.2 -4.5 00:00 0.0
Median
-0.4 -7.5 -5.4 00:00 0.0
Mean
0.1 -6 -5.2 n/a 7.9
Std. Dev
2.2 5.2 2.6 n/a 18
Temp.
(°C)
Wind Chill
(°C)
Dew Point
(°C)
Solar Hours
(hh:mm)
Solar Radiation
(w/m2)
09/03 15:59 5.9 9.8 3.9 00:00 28.0
09/03 15:58 5.9 9.8 3.9 00:00 28.0
09/03 15:57 5.9 9.8 3.9 00:00 30.0
09/03 15:56 5.9 9.8 3.9 00:00 30.0
09/03 13:47 5.8 7.3 3.9 00:00 28.0
09/03 13:46 5.8 7.3 3.9 00:00 26.0
09/03 13:45 5.8 7.3 3.9 00:00 26.0
09/03 13:44 5.8 7.3 3.9 00:00 30.0
09/03 13:43 5.8 7.8 3.9 00:00 36.0
09/03 13:01 5.8 8.2 3.9 00:00 38.0
09/03 13:00 5.8 8.2 3.9 00:00 42.0
09/03 12:59 5.8 8.2 3.9 00:00 44.0
09/03 12:58 5.8 8.2 3.9 00:00 40.0
09/03 12:57 5.8 8.6 3.9 00:00 40.0
09/03 12:34 5.7 9.1 3.8 00:08 40.0
09/03 12:33 5.7 9.1 3.8 00:08 42.0
09/03 12:32 5.7 9.1 3.8 00:08 44.0
09/03 12:31 5.7 9.1 3.8 00:08 46.0
09/03 11:46 5.4 16.5 3 00:08 26.0
09/03 11:45 5.4 16.5 3 00:08 28.0
09/03 11:44 5.4 16.5 3 00:08 30.0
09/03 11:43 5.4 16.5 3 00:08 32.0
09/03 11:42 5.4 16.5 3 00:08 34.0
09/03 08:46 3.6 8.5 0.8 00:00 38.0
09/03 08:45 3.6 8.5 0.8 00:00 40.0
09/03 08:44 3.6 8.5 0.8 00:00 38.0
09/03 08:43 3.6 8.5 0.8 00:00 38.0
09/03 08:42 3.7 15.4 0.9 00:00 38.0
09/03 05:41 3.5 5.3 0.2 00:00 0.0
09/03 05:40 3.5 5.3 0.2 00:00 0.0
09/03 05:39 3.5 5.3 0.2 00:00 0.0
09/03 05:38 3.5 5.3 0.2 00:00 0.0
09/03 05:37 3.5 5.3 0.2 00:00 0.0
09/03 05:36 3.5 5.3 0.2 00:00 0.0
09/03 04:23 3.5 5.7 1 00:00 0.0
09/03 04:22 3.5 5.7 1 00:00 0.0
09/03 04:21 3.5 5.7 1 00:00 0.0
09/03 04:20 3.5 5.7 1 00:00 0.0
08/03 23:05 6.2 8.6 1.1 00:09 0.0
08/03 23:04 6.2 8.6 1.1 00:09 0.0
08/03 23:03 6.2 8.6 1.1 00:09 0.0
08/03 23:02 6.2 8.6 1.1 00:09 0.0
08/03 23:01 6.2 9.3 1.1 00:09 0.0
08/03 22:15 6.4 9.8 1.3 00:09 0.0
08/03 22:14 6.4 9.8 1.3 00:09 0.0
08/03 22:13 6.4 9.8 1.3 00:09 0.0
08/03 22:12 6.4 9.8 1.3 00:09 0.0
08/03 22:11 6.4 10.3 1.3 00:09 0.0
08/03 18:03 8.2 12.6 2.4 00:09 6.0
08/03 18:02 8.2 12.6 2.4 00:09 6.0
08/03 18:01 8.2 12.6 2.4 00:09 8.0
08/03 18:00 8.2 12.6 2.4 00:09 8.0
08/03 13:18 6.9 17.4 1.5 00:17 190.0
08/03 13:17 6.9 17.4 1.5 00:16 102.0
08/03 13:16 6.9 17.4 1.5 00:16 82.0
08/03 13:15 6.9 17.4 1.5 00:16 94.0
08/03 12:12 5.8 5.4 1.3 00:18 68.0
08/03 12:11 5.8 5.4 1.3 00:18 64.0
08/03 12:10 5.8 5.4 1.3 00:18 62.0
08/03 12:09 5.8 5.4 1.3 00:18 62.0
08/03 06:47 3.4 2.9 -0.3 00:00 0.0
08/03 06:46 3.4 2.9 -0.3 00:00 0.0
08/03 06:45 3.4 2.9 -0.3 00:00 0.0
08/03 06:44 3.4 2.9 -0.3 00:00 0.0
08/03 06:43 3.4 3.1 -0.3 00:00 0.0
08/03 00:26 4.4 4.3 -0.3 00:00 0.0
08/03 00:25 4.4 4.3 -0.3 00:00 0.0
08/03 00:24 4.4 4.3 -0.3 00:00 0.0
08/03 00:23 4.4 4.3 -0.3 00:00 0.0
08/03 00:22 4.4 4.3 -0.3 00:00 0.0
07/03 23:24 4.5 4.4 -0.2 05:13 0.0
07/03 23:23 4.5 4.4 -0.2 05:13 0.0
07/03 23:22 4.5 4.4 -0.2 05:13 0.0
07/03 23:21 4.5 4.4 -0.2 05:13 0.0
07/03 18:10 6.7 6.9 -0.6 05:13 0.0
07/03 18:09 6.7 6.9 -0.6 05:13 0.0
07/03 18:08 6.7 6.9 -0.6 05:13 0.0
07/03 18:07 6.7 6.9 -0.6 05:13 0.0
07/03 17:28 7.2 7.4 -0.6 05:13 30.0
07/03 17:27 7.2 7.4 -0.6 05:13 30.0
07/03 17:26 7.2 7.4 -0.6 05:13 30.0
07/03 17:25 7.2 7.4 -0.6 05:13 30.0
07/03 14:04 8.3 8.8 -0.8 04:08 166.0
07/03 14:03 8.3 8.8 -0.8 04:07 172.0
07/03 14:02 8.3 8.8 -0.8 04:06 164.0
07/03 14:01 8.3 8.8 -0.8 04:05 118.0
07/03 13:59 8.5 9.1 -0.9 04:05 66.0
07/03 13:58 8.5 9.1 -0.9 04:05 58.0
07/03 13:57 8.5 9.1 -0.9 04:05 54.0
07/03 13:56 8.5 9.1 -0.9 04:05 54.0
07/03 09:53 6.7 7.5 0.5 00:34 126.0
07/03 09:52 6.7 7.5 0.5 00:33 128.0
07/03 09:51 6.7 7.5 0.5 00:32 132.0
07/03 09:50 6.7 7.5 0.5 00:31 136.0
07/03 09:10 6.0 7.2 0.7 00:00 112.0
07/03 09:09 6.0 7.2 0.7 00:00 112.0
07/03 09:08 6.0 7.2 0.7 00:00 110.0
07/03 09:07 6.0 7.2 0.7 00:00 110.0
07/03 04:12 5.6 6.8 0.3 00:00 0.0
07/03 04:11 5.6 6.8 0.3 00:00 0.0
07/03 04:10 5.6 6.8 0.3 00:00 0.0
07/03 04:09 5.6 6.8 0.3 00:00 0.0
07/03 03:27 5.6 7.1 1.5 00:00 0.0
07/03 03:26 5.6 7.1 1.5 00:00 0.0
07/03 03:25 5.6 7.1 1.5 00:00 0.0
07/03 03:24 5.6 7.1 1.5 00:00 0.0
07/03 03:23 5.6 7.5 1.5 00:00 0.0
07/03 03:22 5.6 7.8 1.5 00:00 0.0
06/03 22:31 5.9 8.7 1.2 00:05 0.0
06/03 22:30 5.9 8.7 1.2 00:05 0.0
06/03 22:29 5.9 8.7 1.2 00:05 0.0
06/03 22:28 5.9 8.7 1.2 00:05 0.0
06/03 21:41 5.4 8.2 -0.1 00:05 0.0
06/03 21:40 5.4 8.2 -0.1 00:05 0.0
06/03 21:39 5.4 8.2 -0.1 00:05 0.0
06/03 21:38 5.4 8.2 -0.1 00:05 0.0
06/03 17:15 7.6 10.6 0.5 00:05 12.0
06/03 17:14 7.6 10.6 0.5 00:05 12.0
06/03 17:13 7.6 10.6 0.5 00:05 12.0
06/03 17:12 7.6 10.6 0.5 00:05 14.0
06/03 16:34 7.4 10.8 -0.2 00:05 18.0
06/03 16:33 7.4 10.8 -0.2 00:05 18.0
06/03 16:32 7.4 10.8 -0.2 00:05 20.0
06/03 16:31 7.4 10.8 -0.2 00:05 20.0
06/03 12:52 7.0 10.8 2 00:03 76.0
06/03 12:51 7.0 10.8 2 00:03 76.0
06/03 12:50 7.0 10.8 2 00:03 76.0
06/03 12:49 7.0 10.8 2 00:03 76.0
06/03 12:12 6.8 11.3 0.6 00:03 66.0
06/03 12:11 6.8 11.3 0.6 00:03 70.0
06/03 12:10 6.8 11.3 0.6 00:03 76.0
06/03 12:09 6.8 11.3 0.6 00:03 82.0
06/03 12:08 6.8 17.3 0.8 00:03 86.0
05/03 15:07 6.0 16.8 3.5 00:39 30.0
05/03 15:06 6.0 16.8 3.5 00:39 30.0
05/03 15:05 6.0 16.8 3.5 00:39 32.0
05/03 15:04 6.0 16.8 3.5 00:39 32.0
05/03 14:23 6.2 17 3.8 00:39 58.0
05/03 14:22 6.2 17 3.8 00:39 56.0
05/03 14:21 6.2 17 3.8 00:39 56.0
05/03 14:20 6.2 17 3.8 00:39 56.0
01/03 18:13 1.0 -6.1 -2.5 00:00 0.0
01/03 17:32 1.6 -5.6 -4.3 00:00 0.0
01/03 17:22 1.5 -5.6 -4.9 00:00 0.0
01/03 17:17 1.6 -5.3 -4.3 00:00 0.0
01/03 17:16 1.6 -5.2 -4.6 00:00 0.0
01/03 17:15 1.7 -5.1 -3.8 00:00 0.0
01/03 17:14 1.7 -5.1 -3.8 00:00 0.0
01/03 17:13 1.7 -5.1 -3.6 00:00 0.0
01/03 17:12 1.6 -5.2 -3.7 00:00 0.0
01/03 17:11 1.6 -5.2 -3.5 00:00 0.0
01/03 17:10 1.5 -5.4 -3.8 00:00 0.0
01/03 17:09 1.5 -5.4 -4 00:00 0.0
01/03 17:08 1.5 -5.4 -3.8 00:00 0.0
01/03 17:07 1.5 -5.4 -3.4 00:00 0.0
01/03 17:06 1.5 -5.4 -3.8 00:00 0.0
01/03 17:05 1.4 -5.5 -3.7 00:00 0.0
01/03 17:04 1.5 -5.4 -3.8 00:00 0.0
01/03 17:03 1.5 -5.4 -3.8 00:00 0.0
01/03 17:02 1.5 -5.4 -3.8 00:00 0.0
01/03 17:00 1.5 -5.4 -3.8 00:00 0.0
01/03 16:59 1.5 -5.4 -4.2 00:00 0.0
01/03 16:58 1.5 -5.4 -4 00:00 0.0
01/03 16:57 1.7 -5.1 -3.6 00:00 0.0
01/03 16:56 1.7 -5.1 -3.4 00:00 0.0
01/03 16:55 1.6 -5.3 -3.9 00:00 0.0
01/03 16:54 1.5 -5.5 -4 00:00 0.0
01/03 16:53 1.6 -5.3 -3.9 00:00 0.0
01/03 16:52 1.6 -5.3 -3.7 00:00 0.0
01/03 16:51 1.6 -5.3 -3.9 00:00 4.0
01/03 16:50 1.5 -5.5 -4.2 00:00 4.0
01/03 16:49 1.5 -5.5 -4 00:00 4.0
01/03 16:48 1.4 -5.7 -4.5 00:00 4.0
01/03 16:47 1.4 -5.6 -4.7 00:00 4.0
01/03 16:46 1.4 -5.6 -4.7 00:00 4.0
01/03 16:45 1.5 -5.5 -4.4 00:00 4.0
01/03 16:44 1.5 -5.5 -4 00:00 4.0
01/03 16:43 1.5 -5.5 -4.2 00:00 0.0
01/03 16:42 1.4 -5.7 -4.3 00:00 4.0
01/03 16:41 1.5 -5.6 -4.4 00:00 4.0
01/03 16:40 1.5 -5.6 -4.4 00:00 4.0
01/03 16:39 1.5 -5.6 -4.4 00:00 4.0
01/03 16:38 1.6 -5.4 -4.1 00:00 4.0
01/03 16:37 1.6 -5.4 -3.7 00:00 4.0
01/03 16:36 1.6 -5.5 -3.9 00:00 4.0
01/03 16:35 1.5 -5.6 -4.2 00:00 4.0
01/03 16:34 1.6 -5.4 -4.1 00:00 4.0
01/03 16:33 1.5 -5.6 -4 00:00 4.0
01/03 16:32 1.4 -5.8 -4.7 00:00 4.0
01/03 16:31 1.4 -5.8 -5.2 00:00 4.0
01/03 16:30 1.4 -5.8 -5.2 00:00 4.0
01/03 16:29 1.4 -5.8 -5 00:00 4.0
01/03 16:28 1.4 -5.8 -4.3 00:00 4.0
01/03 16:27 1.4 -5.9 -4.5 00:00 4.0
01/03 16:26 1.4 -5.9 -4.5 00:00 4.0
01/03 16:25 1.4 -5.8 -4.5 00:00 6.0
01/03 16:24 1.4 -5.7 -4.3 00:00 6.0
01/03 16:23 1.3 -5.9 -4.6 00:00 6.0
01/03 16:22 1.4 -5.7 -4.7 00:00 6.0
01/03 16:21 1.3 -5.8 -5.1 00:00 4.0
01/03 16:20 1.4 -5.6 -5.2 00:00 4.0
01/03 16:18 1.4 -5.5 -5 00:00 6.0
01/03 16:17 1.3 -5.6 -5.3 00:00 6.0
01/03 16:16 1.4 -5.5 -5.2 00:00 6.0
01/03 16:15 1.5 -5.3 -3.8 00:00 4.0
01/03 16:14 1.4 -5.5 -3.7 00:00 4.0
01/03 16:13 1.3 -5.7 -4 00:00 4.0
01/03 16:12 1.3 -5.8 -4.2 00:00 4.0
01/03 16:11 1.4 -5.7 -4.1 00:00 4.0
01/03 16:10 1.4 -5.7 -4.5 00:00 4.0
01/03 16:09 1.5 -5.5 -4.4 00:00 6.0
01/03 16:08 1.6 -5.4 -3.9 00:00 8.0
01/03 16:07 1.5 -5.6 -3.8 00:00 8.0
01/03 16:06 1.4 -5.7 -4.1 00:00 8.0
01/03 16:05 1.3 -5.9 -4.6 00:00 6.0
01/03 16:04 1.3 -5.9 -4.6 00:00 6.0
01/03 16:03 1.2 -6 -4.5 00:00 6.0
01/03 16:02 1.2 -6 -4.7 00:00 6.0
01/03 16:01 1.3 -5.9 -4.2 00:00 6.0
01/03 16:00 1.2 -6 -4.9 00:00 8.0
01/03 15:59 1.4 -5.7 -4.3 00:00 8.0
01/03 15:58 1.3 -5.8 -4.2 00:00 6.0
01/03 15:57 1.2 -6 -4.5 00:00 6.0
01/03 15:56 1.2 -6 -4.5 00:00 6.0
01/03 15:55 1.2 -6 -4.7 00:00 6.0
01/03 15:54 1.2 -5.9 -4.9 00:00 6.0
01/03 15:53 1.2 -5.9 -4.5 00:00 6.0
01/03 15:52 1.1 -6.1 -5 00:00 6.0
01/03 15:51 1.1 -6 -5 00:00 6.0
01/03 15:50 1.2 -5.9 -4.5 00:00 8.0
01/03 15:49 1.2 -5.9 -4.5 00:00 8.0
01/03 15:48 1.2 -5.9 -4.3 00:00 8.0
01/03 15:47 1.1 -6.1 -4.8 00:00 8.0
01/03 15:46 1.3 -5.8 -4.4 00:00 8.0
01/03 15:45 1.3 -5.8 -4 00:00 8.0
01/03 15:44 1.2 -6 -4.3 00:00 8.0
01/03 15:43 1.2 -6 -4.5 00:00 6.0
01/03 15:42 1.2 -6 -4.7 00:00 8.0
01/03 15:41 1.2 -6 -4.5 00:00 8.0
01/03 15:40 1.2 -6 -4.3 00:00 8.0
01/03 15:39 1.1 -6.2 -4.8 00:00 6.0
01/03 15:38 1.1 -6.2 -4.8 00:00 6.0
01/03 15:37 1.2 -6 -4.5 00:00 6.0
01/03 15:36 1.3 -5.9 -4.2 00:00 6.0
01/03 15:35 1.2 -6.1 -4.3 00:00 6.0
01/03 15:34 1.1 -6.2 -4.6 00:00 8.0
01/03 15:33 1.1 -6.2 -5 00:00 10.0
01/03 15:32 1.1 -6.2 -4.8 00:00 10.0
01/03 15:30 1.1 -6.1 -4.6 00:00 8.0
01/03 15:29 1.0 -6.3 -4.9 00:00 8.0
01/03 15:28 1.0 -6.3 -5.1 00:00 8.0
01/03 15:27 1.1 -6.1 -5 00:00 6.0
01/03 15:26 1.2 -6 -4.5 00:00 8.0
01/03 15:25 1.2 -5.9 -4.7 00:00 6.0
01/03 15:24 1.3 -5.8 -4.2 00:00 6.0
01/03 15:23 1.2 -5.9 -4.1 00:00 6.0
01/03 15:22 1.2 -6 -4.7 00:00 6.0
01/03 15:21 1.2 -6 -4.3 00:00 6.0
01/03 15:19 1.1 -6.2 -4.6 00:00 6.0
01/03 15:16 1.3 -5.9 -4 00:00 6.0
01/03 15:13 1.1 -6.2 -4.4 00:00 8.0
01/03 15:04 1.0 -6.2 -4.7 00:00 10.0
01/03 14:34 1.0 -6.1 -4.5 00:00 14.0
01/03 14:13 0.9 -6.2 -4.2 00:00 8.0
01/03 14:10 1.1 -5.8 -4 00:00 18.0
01/03 14:06 1.2 -5.7 -4.9 00:00 16.0
01/03 14:05 1.2 -5.7 -4.3 00:00 14.0
01/03 14:04 1.2 -5.7 -4.9 00:00 14.0
01/03 14:03 1.2 -5.7 -5.1 00:00 18.0
01/03 14:02 1.4 -5.5 -4.5 00:00 20.0
01/03 14:01 1.3 -5.6 -4.4 00:00 20.0
01/03 14:00 1.1 -5.9 -4.8 00:00 22.0
01/03 13:59 1.0 -6.1 -5.3 00:00 24.0
01/03 13:58 1.0 -6 -5.5 00:00 26.0
01/03 13:57 1.1 -5.9 -5 00:00 30.0
01/03 13:56 1.1 -5.9 -5 00:00 28.0
01/03 13:55 1.1 -5.8 -5 00:00 20.0
01/03 13:54 1.1 -5.9 -5 00:00 14.0
01/03 13:53 1.0 -6 -5.1 00:00 14.0
01/03 13:51 0.9 -6.1 -5.4 00:00 14.0
01/03 13:50 1.0 -5.9 -4.7 00:00 14.0
01/03 13:49 1.0 -5.9 -4.5 00:00 14.0
01/03 13:48 1.0 -5.9 -4.5 00:00 20.0
01/03 13:47 1.0 -6 -4.7 00:00 28.0
01/03 13:46 1.0 -6 -4.7 00:00 24.0
01/03 13:45 1.0 -6 -4.5 00:00 16.0
01/03 13:44 0.8 -6.3 -5.1 00:00 14.0
01/03 13:43 0.7 -6.4 -5.2 00:00 12.0
01/03 13:41 0.8 -6.2 -4.9 00:00 10.0
01/03 13:40 0.9 -6.1 -4.2 00:00 10.0
01/03 13:39 0.8 -6.3 -4.5 00:00 12.0
01/03 13:38 0.8 -6.3 -4.9 00:00 10.0
01/03 13:37 0.8 -6.3 -4.7 00:00 12.0
01/03 13:36 0.8 -6.3 -5.3 00:00 12.0
01/03 13:35 0.8 -6.2 -4.9 00:00 12.0
01/03 13:34 0.8 -6.2 -4.7 00:00 12.0
01/03 13:33 0.8 -6.2 -4.9 00:00 14.0
01/03 13:32 0.7 -6.3 -4.4 00:00 12.0
01/03 13:31 0.6 -6.5 -4.3 00:00 10.0
01/03 13:30 0.6 -6.5 -4.9 00:00 10.0
01/03 13:29 0.7 -6.4 -5.2 00:00 10.0
01/03 13:28 0.8 -6.2 -4.7 00:00 12.0
01/03 13:27 0.9 -6 -5 00:00 12.0
01/03 13:26 1.0 -5.9 -4.3 00:00 12.0
01/03 13:25 0.9 -6 -4 00:00 18.0
01/03 13:24 0.8 -6.2 -4.5 00:00 24.0
01/03 13:23 0.8 -6.2 -4.9 00:00 30.0
01/03 13:22 0.9 -6 -4.8 00:00 28.0
01/03 13:21 0.9 -6 -4.6 00:00 28.0
01/03 13:20 1.0 -5.9 -4.3 00:00 26.0
01/03 13:19 0.9 -6 -4.4 00:00 22.0
01/03 13:18 0.9 -6 -4 00:00 24.0
01/03 13:17 0.8 -6.1 -4.7 00:00 22.0
01/03 13:16 0.9 -6 -4.4 00:00 24.0
01/03 13:15 0.8 -6.1 -4.3 00:00 26.0
01/03 13:14 0.7 -6.2 -4.4 00:00 24.0
01/03 13:13 0.6 -6.4 -4.5 00:00 20.0
01/03 13:12 0.7 -6.3 -4.2 00:00 18.0
01/03 13:11 0.8 -6.1 -4.1 00:00 20.0
01/03 13:10 0.8 -6.1 -4.3 00:00 18.0
01/03 13:08 0.7 -6.2 -4.2 00:00 18.0
01/03 13:07 0.6 -6.3 -4.5 00:00 24.0
01/03 13:06 0.6 -6.3 -4.3 00:00 24.0
01/03 13:05 0.7 -6.2 -4 00:00 18.0
01/03 13:04 0.8 -6.1 -3.9 00:00 14.0
01/03 13:03 0.9 -6 -4 00:00 18.0
01/03 13:02 0.9 -6 -3.8 00:00 20.0
01/03 13:01 0.8 -6.1 -4.3 00:00 22.0
01/03 12:59 1.0 -5.8 -3.9 00:00 18.0
01/03 12:56 0.8 -6.2 -4.5 00:00 28.0
01/03 12:53 0.5 -6.6 -5.2 00:00 32.0
01/03 12:50 0.8 -6.2 -3.7 00:00 20.0
01/03 12:47 0.6 -6.5 -4.5 00:00 32.0
01/03 12:44 0.5 -6.5 -4.2 00:00 20.0
01/03 12:41 0.7 -6.2 -4.2 00:00 32.0
01/03 12:38 0.7 -6.3 -4 00:00 18.0
01/03 12:35 0.7 -6.2 -4.6 00:00 20.0
01/03 12:32 0.7 -6.3 -4.4 00:00 18.0
01/03 12:29 0.6 -6.4 -4.3 00:00 22.0
01/03 12:23 0.4 -6.7 -4.5 00:00 28.0
01/03 12:20 0.4 -6.6 -4.5 00:00 26.0
01/03 12:17 0.7 -6.2 -4.2 00:00 24.0
01/03 12:14 0.5 -6.4 -5 00:00 32.0
01/03 12:11 0.8 -5.9 -3.9 00:00 16.0
01/03 12:08 0.7 -6.1 -4.2 00:00 36.0
01/03 12:07 0.5 -6.3 -4.4 00:00 44.0
01/03 12:06 0.4 -6.5 -4.7 00:00 40.0
01/03 12:05 0.6 -6.2 -4.1 00:00 36.0
01/03 12:04 0.5 -6.3 -3.7 00:00 38.0
01/03 12:03 0.5 -6.4 -3.7 00:00 38.0
01/03 12:02 0.4 -6.6 -4.1 00:00 40.0
01/03 12:01 0.6 -6.3 -4.1 00:00 46.0
01/03 11:59 0.9 -6 -3.8 00:00 28.0
01/03 11:58 0.9 -6 -4 00:00 18.0
01/03 11:57 0.8 -6.1 -3.9 00:00 22.0
01/03 11:56 0.6 -6.4 -4.7 00:00 28.0
01/03 11:55 0.6 -6.4 -4.9 00:00 38.0
01/03 11:54 0.6 -6.4 -4.7 00:00 42.0
01/03 11:53 0.6 -6.4 -5.1 00:00 38.0
01/03 11:52 0.6 -6.4 -4.9 00:00 32.0
01/03 11:51 0.6 -6.3 -4.5 00:00 30.0
01/03 11:50 0.4 -6.6 -4.9 00:00 30.0
01/03 11:49 0.2 -6.9 -5.3 00:00 28.0
01/03 11:48 0.2 -6.8 -5.1 00:00 24.0
01/03 11:47 0.2 -6.8 -5.3 00:00 20.0
01/03 11:46 0.3 -6.6 -4.8 00:00 22.0
01/03 11:45 0.4 -6.5 -5.1 00:00 24.0
01/03 11:44 0.5 -6.3 -4 00:00 20.0
01/03 11:43 0.3 -6.6 -4.4 00:00 24.0
01/03 11:42 0.3 -6.7 -4.6 00:00 26.0
01/03 11:41 0.3 -6.7 -4.4 00:00 26.0
01/03 11:40 0.3 -6.7 -4.4 00:00 20.0
01/03 11:39 0.5 -6.4 -4 00:00 20.0
01/03 11:38 0.6 -6.3 -3.7 00:00 20.0
01/03 11:37 0.4 -6.5 -4.3 00:00 22.0
01/03 11:36 0.1 -7 -4.6 00:00 18.0
01/03 11:35 0.1 -7 -4.6 00:00 16.0
01/03 11:34 0.1 -7 -4.6 00:00 20.0
01/03 11:33 0.1 -7 -4.4 00:00 28.0
01/03 11:32 0.1 -7 -4.2 00:00 26.0
01/03 11:31 0.3 -6.6 -4.2 00:00 22.0
01/03 11:30 0.2 -6.7 -3.9 00:00 28.0
01/03 11:29 0.1 -6.9 -4 00:00 34.0
01/03 11:28 0.0 -7 -4.3 00:00 38.0
01/03 11:27 0.0 -7.1 -4.5 00:00 44.0
01/03 11:26 0.1 -6.9 -4.6 00:00 42.0
01/03 11:25 0.4 -6.6 -4.3 00:00 48.0
01/03 11:24 0.5 -6.5 -3.8 00:00 46.0
01/03 11:23 0.4 -6.6 -3.8 00:00 36.0
01/03 11:22 0.3 -6.8 -4.2 00:00 30.0
01/03 11:21 0.3 -6.8 -4.2 00:00 28.0
01/03 11:20 0.1 -7.1 -4.4 00:00 30.0
01/03 11:19 0.0 -7.3 -4.5 00:00 30.0
01/03 11:18 0.0 -7.3 -4.5 00:00 36.0
01/03 11:17 -0.1 -7.4 -4.6 00:00 32.0
01/03 11:16 0.0 -7.3 -4.7 00:00 20.0
01/03 11:15 0.1 -7.2 -4.8 00:00 20.0
01/03 11:14 0.2 -7 -4.9 00:00 24.0
01/03 11:13 0.3 -6.9 -5 00:00 26.0
01/03 11:12 0.3 -6.9 -5 00:00 26.0
01/03 11:11 0.3 -6.8 -5.2 00:00 32.0
01/03 11:10 0.2 -6.9 -5.5 00:00 34.0
01/03 11:09 0.2 -6.9 -5.3 00:00 34.0
01/03 11:08 0.3 -6.8 -4.8 00:00 38.0
01/03 11:07 0.3 -6.8 -5 00:00 38.0
01/03 11:06 0.3 -6.8 -5 00:00 32.0
01/03 11:05 0.3 -6.8 -4.8 00:00 32.0
01/03 11:04 0.3 -6.8 -4.8 00:00 32.0
01/03 11:03 0.3 -6.7 -4.6 00:00 28.0
01/03 11:02 0.3 -6.7 -4.8 00:00 20.0
01/03 11:01 0.3 -6.7 -5 00:00 18.0
01/03 11:00 0.3 -6.7 -4.8 00:00 18.0
01/03 10:59 0.2 -6.8 -4.9 00:00 20.0
01/03 10:58 0.1 -7 -5.4 00:00 20.0
01/03 10:57 0.3 -6.7 -4.8 00:00 20.0
01/03 10:56 0.2 -6.8 -5.1 00:00 20.0
01/03 10:55 0.2 -6.8 -4.9 00:00 18.0
01/03 10:54 0.1 -7 -5 00:00 22.0
01/03 10:53 0.0 -7.2 -5.5 00:00 22.0
01/03 10:52 0.1 -7 -5 00:00 18.0
01/03 10:51 0.3 -6.7 -4.2 00:00 12.0
01/03 10:50 0.2 -6.9 -4.3 00:00 14.0
01/03 10:49 0.0 -7.2 -5.1 00:00 20.0
01/03 10:48 0.1 -7 -4.4 00:00 22.0
01/03 10:47 0.0 -7.2 -4.5 00:00 26.0
01/03 10:46 0.1 -7 -4.8 00:00 28.0
01/03 10:45 0.1 -7 -4.2 00:00 28.0
01/03 10:44 0.0 -7.1 -4.7 00:00 32.0
01/03 10:43 0.0 -7.1 -5.1 00:00 34.0
01/03 10:42 0.1 -6.9 -5.2 00:00 28.0
01/03 10:41 0.1 -6.8 -5 00:00 26.0
01/03 10:40 0.0 -7 -4.9 00:00 22.0
01/03 10:39 0.1 -6.8 -4.8 00:00 16.0
01/03 10:38 0.2 -6.6 -3.9 00:00 12.0
01/03 10:37 0.0 -6.9 -4.9 00:00 12.0
01/03 10:36 0.0 -6.8 -5.1 00:00 14.0
01/03 10:35 0.0 -6.8 -5.1 00:00 14.0
01/03 10:34 0.1 -6.7 -4.8 00:00 16.0
01/03 10:33 0.2 -6.6 -4.3 00:00 20.0
01/03 10:32 0.1 -6.7 -3.9 00:00 20.0
01/03 10:31 0.0 -6.9 -3.8 00:00 16.0
01/03 10:30 -0.2 -7.2 -4.1 00:00 16.0
01/03 10:29 -0.1 -7 -3.3 00:00 16.0
01/03 10:28 -0.3 -7.3 -3.4 00:00 16.0
01/03 10:27 -0.3 -7.3 -3.4 00:00 12.0
01/03 10:26 -0.4 -7.5 -3.5 00:00 10.0
01/03 10:25 -0.5 -7.6 -3.6 00:00 12.0
01/03 10:24 -0.4 -7.5 -3.5 00:00 22.0
01/03 10:23 -0.2 -7.3 -3.6 00:00 20.0
01/03 10:22 -0.1 -7.1 -3.3 00:00 12.0
01/03 10:21 -0.2 -7.3 -3.8 00:00 10.0
01/03 10:20 -0.2 -7.3 -4 00:00 12.0
01/03 10:19 0.0 -7.1 -4.1 00:00 14.0
01/03 10:18 0.2 -6.8 -4.1 00:00 14.0
01/03 10:17 0.3 -6.8 -4 00:00 12.0
01/03 10:16 0.2 -6.9 -3.9 00:00 14.0
01/03 10:15 0.0 -7.2 -4.9 00:00 16.0
01/03 10:14 0.0 -7.2 -4.5 00:00 14.0
01/03 10:13 -0.1 -7.3 -4.6 00:00 14.0
01/03 10:12 0.0 -7.2 -4.7 00:00 12.0
01/03 10:11 0.0 -7.2 -4.5 00:00 14.0
01/03 10:10 -0.1 -7.3 -4.8 00:00 16.0
01/03 10:09 -0.1 -7.3 -5.2 00:00 18.0
01/03 10:08 -0.1 -7.3 -4.8 00:00 20.0
01/03 10:07 0.0 -7.2 -4.7 00:00 16.0
01/03 10:06 0.1 -7.1 -4.4 00:00 12.0
01/03 10:05 0.0 -7.2 -4.3 00:00 8.0
01/03 10:04 0.1 -7.1 -4.6 00:00 8.0
01/03 10:03 0.2 -6.9 -4.9 00:00 12.0
01/03 10:02 0.2 -6.9 -5.5 00:00 18.0
01/03 10:01 0.1 -7.1 -5 00:00 18.0
01/03 10:00 0.0 -7.2 -6.3 00:00 20.0
01/03 09:59 0.0 -7.2 -6.3 00:00 22.0
01/03 09:58 0.0 -7.2 -5.3 00:00 20.0
01/03 09:57 -0.1 -7.3 -5.8 00:00 18.0
01/03 09:56 -0.1 -7.3 -5.8 00:00 20.0
01/03 09:55 -0.1 -7.3 -5 00:00 22.0
01/03 09:54 -0.1 -7.3 -5 00:00 22.0
01/03 09:53 -0.1 -7.4 -5 00:00 20.0
01/03 09:52 0.0 -7.2 -4.9 00:00 16.0
01/03 09:51 -0.1 -7.3 -6 00:00 18.0
01/03 09:50 0.0 -7.1 -5.5 00:00 22.0
01/03 09:49 0.0 -7.1 -5.3 00:00 24.0
01/03 09:48 -0.1 -7.2 -5.4 00:00 24.0
01/03 09:47 -0.1 -7.2 -5.4 00:00 20.0
01/03 09:46 -0.2 -7.4 -6.3 00:00 14.0
01/03 09:45 -0.1 -7.2 -5.8 00:00 16.0
01/03 09:44 -0.3 -7.5 -5.8 00:00 16.0
01/03 09:43 -0.3 -7.4 -5.8 00:00 14.0
01/03 09:42 -0.2 -7.2 -4.9 00:00 12.0
01/03 09:41 -0.2 -7.2 -4.5 00:00 10.0
01/03 09:40 -0.2 -7.2 -4.7 00:00 16.0
01/03 09:39 -0.3 -7.4 -4.8 00:00 20.0
01/03 09:38 -0.2 -7.3 -5.1 00:00 20.0
01/03 09:37 -0.1 -7.2 -4.6 00:00 12.0
01/03 09:36 -0.1 -7.2 -4.2 00:00 12.0
01/03 09:35 -0.2 -7.4 -4.9 00:00 10.0
01/03 09:34 -0.2 -7.3 -4.1 00:00 10.0
01/03 09:33 -0.3 -7.5 -4.2 00:00 12.0
01/03 09:32 -0.4 -7.7 -4.5 00:00 12.0
01/03 09:31 -0.5 -7.8 -4.8 00:00 14.0
01/03 09:30 -0.4 -7.8 -4.9 00:00 10.0
01/03 09:29 -0.4 -7.8 -5.1 00:00 10.0
01/03 09:28 -0.4 -7.8 -5.5 00:00 16.0
01/03 09:27 -0.4 -7.8 -5.9 00:00 14.0
01/03 09:26 -0.1 -7.3 -4.8 00:00 10.0
01/03 09:25 -0.3 -7.6 -5.4 00:00 10.0
01/03 09:24 -0.3 -7.5 -6 00:00 10.0
01/03 09:23 -0.1 -7.3 -5.2 00:00 10.0
01/03 09:22 -0.1 -7.3 -5.4 00:00 14.0
01/03 09:21 -0.2 -7.5 -5.5 00:00 16.0
01/03 09:20 -0.3 -7.6 -5.8 00:00 14.0
01/03 09:19 -0.3 -7.6 -5.8 00:00 12.0
01/03 09:18 -0.1 -7.3 -5.4 00:00 14.0
01/03 09:17 -0.1 -7.3 -5 00:00 18.0
01/03 09:16 -0.2 -7.4 -5.1 00:00 18.0
01/03 09:15 -0.3 -7.6 -5.2 00:00 16.0
01/03 09:14 -0.5 -7.8 -5.2 00:00 10.0
01/03 09:13 -0.6 -8 -5.7 00:00 6.0
01/03 09:12 -0.6 -7.9 -5.5 00:00 6.0
01/03 09:11 -0.7 -8 -5.7 00:00 6.0
01/03 09:10 -0.6 -7.9 -5.1 00:00 8.0
01/03 09:09 -0.7 -8 -5.4 00:00 10.0
01/03 09:08 -0.5 -7.8 -5.2 00:00 8.0
01/03 09:07 -0.3 -7.5 -4.8 00:00 6.0
01/03 09:06 -0.2 -7.4 -4.5 00:00 6.0
01/03 09:05 -0.3 -7.6 -5 00:00 6.0
01/03 09:04 -0.2 -7.4 -4.9 00:00 6.0
01/03 09:03 -0.2 -7.4 -4.9 00:00 12.0
01/03 09:02 -0.1 -7.3 -4.6 00:00 16.0
01/03 09:01 -0.3 -7.5 -4.8 00:00 12.0
01/03 09:00 -0.5 -7.8 -5.2 00:00 10.0
01/03 08:59 -0.5 -7.8 -5.4 00:00 8.0
01/03 08:58 -0.3 -7.5 -5.2 00:00 10.0
01/03 08:57 -0.5 -7.8 -5.8 00:00 10.0
01/03 08:56 -0.3 -7.5 -6 00:00 12.0
01/03 08:55 -0.2 -7.3 -5.5 00:00 12.0
01/03 08:54 -0.2 -7.4 -5.3 00:00 12.0
01/03 08:53 -0.3 -7.5 -5.4 00:00 12.0
01/03 08:52 -0.3 -7.5 -5.4 00:00 10.0
01/03 08:51 -0.1 -7.3 -5.2 00:00 8.0
01/03 08:50 -0.1 -7.3 -5 00:00 8.0
01/03 08:49 -0.3 -7.6 -5.2 00:00 10.0
01/03 08:48 -0.4 -7.7 -5.7 00:00 10.0
01/03 08:47 -0.3 -7.6 -5.6 00:00 10.0
01/03 08:46 -0.2 -7.5 -6.1 00:00 12.0
01/03 08:45 -0.1 -7.3 -6.2 00:00 12.0
01/03 08:44 -0.2 -7.4 -6.3 00:00 14.0
01/03 08:43 -0.3 -7.4 -6.8 00:00 14.0
01/03 08:42 -0.4 -7.5 -6.7 00:00 14.0
01/03 08:41 -0.4 -7.5 -6.7 00:00 14.0
01/03 08:40 -0.3 -7.4 -5.8 00:00 12.0
01/03 08:39 -0.3 -7.4 -5.8 00:00 10.0
01/03 08:38 -0.3 -7.4 -5.8 00:00 6.0
01/03 08:37 -0.4 -7.6 -6.1 00:00 6.0
01/03 08:36 -0.2 -7.3 -5.9 00:00 8.0
01/03 08:35 -0.1 -7.2 -5 00:00 6.0
01/03 08:34 -0.2 -7.3 -5.1 00:00 6.0
01/03 08:33 -0.3 -7.5 -5.4 00:00 6.0
01/03 08:32 -0.2 -7.5 -5.5 00:00 6.0
01/03 08:31 -0.1 -7.4 -5.4 00:00 6.0
01/03 08:30 -0.1 -7.4 -5.6 00:00 10.0
01/03 08:29 -0.2 -7.5 -6.1 00:00 12.0
01/03 08:28 -0.2 -7.5 -6.5 00:00 10.0
01/03 08:27 -0.2 -7.4 -5.7 00:00 8.0
01/03 08:26 -0.1 -7.3 -5.4 00:00 8.0
01/03 08:25 -0.3 -7.6 -6 00:00 12.0
01/03 08:24 -0.4 -7.7 -6.7 00:00 14.0
01/03 08:23 -0.4 -7.7 -6.7 00:00 10.0
01/03 08:22 -0.3 -7.5 -6.8 00:00 6.0
01/03 08:21 -0.2 -7.4 -6.5 00:00 6.0
01/03 08:20 -0.1 -7.2 -6.4 00:00 8.0
01/03 08:19 -0.2 -7.3 -6.5 00:00 10.0
01/03 08:18 -0.4 -7.6 -6.7 00:00 12.0
01/03 08:17 -0.4 -7.6 -6.9 00:00 12.0
01/03 08:16 -0.3 -7.4 -6.4 00:00 12.0
01/03 08:15 -0.1 -7.2 -6 00:00 12.0
01/03 08:14 0.0 -7 -4.9 00:00 12.0
01/03 08:13 -0.2 -7.3 -5.7 00:00 10.0
01/03 08:12 -0.1 -7.2 -5.8 00:00 8.0
01/03 08:11 -0.2 -7.4 -5.9 00:00 6.0
01/03 08:10 -0.3 -7.5 -6 00:00 6.0
01/03 08:09 -0.3 -7.6 -6.6 00:00 6.0
01/03 08:08 -0.1 -7.3 -6 00:00 6.0
01/03 08:07 -0.2 -7.5 -6.1 00:00 6.0
01/03 08:06 -0.3 -7.7 -6.2 00:00 6.0
01/03 08:05 -0.3 -7.7 -6 00:00 6.0
01/03 08:04 -0.4 -7.8 -6.3 00:00 6.0
01/03 08:03 -0.4 -7.8 -6.1 00:00 6.0
01/03 08:02 -0.6 -8.1 -6.6 00:00 6.0
01/03 08:01 -0.6 -8 -7.1 00:00 6.0
01/03 08:00 -0.5 -7.8 -6.3 00:00 4.0
01/03 07:59 -0.5 -7.8 -6.6 00:00 4.0
01/03 07:58 -0.3 -7.6 -6.4 00:00 4.0
01/03 07:57 -0.3 -7.5 -6.2 00:00 4.0
01/03 07:56 -0.4 -7.6 -6.9 00:00 4.0
01/03 07:55 -0.2 -7.3 -6.9 00:00 4.0
01/03 07:54 -0.3 -7.5 -6.6 00:00 4.0
01/03 07:53 -0.2 -7.4 -6.9 00:00 4.0
01/03 07:52 -0.2 -7.3 -6.1 00:00 0.0
01/03 07:51 -0.3 -7.5 -6.6 00:00 0.0
01/03 07:50 -0.4 -7.6 -6.9 00:00 4.0
01/03 07:49 -0.2 -7.3 -6.7 00:00 4.0
01/03 07:48 -0.2 -7.2 -7.1 00:00 4.0
01/03 07:47 -0.2 -7.2 -6.3 00:00 4.0
01/03 07:46 -0.3 -7.3 -6.4 00:00 4.0
01/03 07:45 -0.4 -7.4 -6.7 00:00 4.0
01/03 07:44 -0.4 -7.4 -6.7 00:00 0.0
01/03 07:43 -0.5 -7.5 -6.6 00:00 0.0
01/03 07:42 -0.6 -7.6 -6.4 00:00 0.0
01/03 07:41 -0.6 -7.7 -6.2 00:00 0.0
01/03 07:40 -0.7 -7.8 -5.6 00:00 0.0
01/03 07:39 -0.8 -8 -5.8 00:00 0.0
01/03 07:38 -0.8 -8 -5.8 00:00 0.0
01/03 07:37 -0.8 -8.1 -5.5 00:00 0.0
01/03 07:36 -0.9 -8.3 -5.7 00:00 0.0
01/03 07:35 -0.8 -8.2 -5.7 00:00 0.0
01/03 07:34 -0.8 -8.2 -5.8 00:00 0.0
01/03 07:33 -0.7 -8.1 -5.9 00:00 0.0
01/03 07:32 -0.9 -8.3 -6.3 00:00 0.0
01/03 07:31 -0.7 -8.1 -6.3 00:00 0.0
01/03 07:30 -0.6 -7.9 -5.8 00:00 0.0
01/03 07:29 -0.7 -8 -5.9 00:00 0.0
01/03 07:28 -0.8 -8.1 -6.2 00:00 0.0
01/03 07:27 -0.8 -8.1 -6.4 00:00 0.0
01/03 07:26 -0.9 -8.3 -6.5 00:00 0.0
01/03 07:25 -1.0 -8.4 -6.4 00:00 0.0
01/03 07:24 -1.0 -8.4 -6 00:00 0.0
01/03 07:23 -0.9 -8.2 -5.9 00:00 0.0
01/03 07:22 -0.9 -8.2 -5.6 00:00 0.0
01/03 07:21 -0.8 -8.1 -5.5 00:00 0.0
01/03 07:20 -0.8 -8.2 -5.8 00:00 0.0
01/03 07:19 -0.7 -8 -5.4 00:00 0.0
01/03 07:18 -0.7 -8 -5.6 00:00 0.0
01/03 07:17 -0.8 -8.2 -6.2 00:00 0.0
01/03 07:16 -0.8 -8.2 -6.4 00:00 0.0
01/03 07:15 -0.8 -8.1 -6.6 00:00 0.0
01/03 07:14 -0.8 -8.1 -6.2 00:00 0.0
01/03 07:13 -0.8 -8.1 -6.6 00:00 0.0
01/03 07:12 -0.8 -8.1 -6.6 00:00 0.0
01/03 07:11 -0.7 -8 -6.5 00:00 0.0
01/03 07:10 -0.6 -7.9 -6 00:00 0.0
01/03 07:09 -0.6 -7.9 -6.2 00:00 0.0
01/03 07:08 -0.6 -7.9 -5.7 00:00 0.0
01/03 07:07 -0.8 -8.2 -6.4 00:00 0.0
01/03 07:06 -0.7 -8.1 -5.9 00:00 0.0
01/03 07:05 -1.0 -8.5 -6.2 00:00 0.0
01/03 07:04 -0.9 -8.4 -6.1 00:00 0.0
01/03 07:03 -1.0 -8.6 -6.4 00:00 0.0
01/03 07:02 -0.9 -8.5 -6.7 00:00 0.0
01/03 07:01 -0.8 -8.3 -7 00:00 0.0
01/03 07:00 -0.7 -8.2 -6.7 00:00 0.0
01/03 06:59 -0.7 -8.1 -7.2 00:00 0.0
01/03 06:58 -0.8 -8.1 -7.5 00:00 0.0
01/03 06:57 -0.8 -8.1 -6.8 00:00 0.0
01/03 06:56 -0.9 -8.1 -6.1 00:00 0.0
01/03 06:55 -1.1 -8.4 -6.5 00:00 0.0
01/03 06:54 -1.1 -8.4 -6.5 00:00 0.0
01/03 06:53 -1.0 -8.3 -6.4 00:00 0.0
01/03 06:52 -0.8 -8 -6.6 00:00 0.0
01/03 06:51 -0.7 -7.9 -6.1 00:00 0.0
01/03 06:50 -0.9 -8.2 -7.1 00:00 0.0
01/03 06:49 -0.9 -8.2 -7.1 00:00 0.0
01/03 06:48 -0.9 -8.2 -6.7 00:00 0.0
01/03 06:47 -0.9 -8.3 -5.9 00:00 0.0
01/03 06:46 -1.1 -8.6 -6.7 00:00 0.0
01/03 06:45 -1.2 -8.8 -6.8 00:00 0.0
01/03 06:44 -1.2 -8.9 -7.6 00:00 0.0
01/03 06:43 -1.1 -8.7 -7.3 00:00 0.0
01/03 06:42 -1.0 -8.6 -7.2 00:00 0.0
01/03 06:41 -0.9 -8.5 -7.3 00:00 0.0
01/03 06:40 -0.6 -8.1 -7.1 00:00 0.0
01/03 06:39 -0.8 -8.3 -8.4 00:00 0.0
01/03 06:38 -0.8 -8.3 -8.8 00:00 0.0
01/03 06:37 -0.7 -8.1 -8.5 00:00 0.0
01/03 06:36 -0.8 -8.2 -7.5 00:00 0.0
01/03 06:35 -0.9 -8.3 -7.8 00:00 0.0
01/03 06:34 -0.9 -8.3 -8.4 00:00 0.0
01/03 06:33 -0.9 -8.2 -8.2 00:00 0.0
01/03 06:32 -0.9 -8.2 -8 00:00 0.0
01/03 06:31 -0.8 -8 -6.8 00:00 0.0
01/03 06:30 -1.0 -8.3 -7 00:00 0.0
01/03 06:29 -1.0 -8.2 -7.2 00:00 0.0
01/03 06:28 -1.0 -8.2 -7.7 00:00 0.0
01/03 06:27 -1.1 -8.4 -7.3 00:00 0.0
01/03 06:26 -1.1 -8.5 -7.8 00:00 0.0
01/03 06:25 -1.0 -8.3 -7.4 00:00 0.0
01/03 06:24 -1.0 -8.3 -7.4 00:00 0.0
01/03 06:23 -0.9 -8.2 -7.8 00:00 0.0
01/03 06:22 -0.7 -7.9 -6.9 00:00 0.0
01/03 06:21 -0.8 -8.1 -7.3 00:00 0.0
01/03 06:20 -0.9 -8.2 -7.8 00:00 0.0
01/03 06:19 -0.9 -8.2 -7.8 00:00 0.0
01/03 06:18 -0.9 -8.2 -8.4 00:00 0.0
01/03 06:17 -0.9 -8.2 -8.7 00:00 0.0
01/03 06:16 -0.8 -8 -8.4 00:00 0.0
01/03 06:15 -0.7 -7.8 -7.8 00:00 0.0
01/03 06:14 -0.7 -7.8 -6.7 00:00 0.0
01/03 06:13 -0.8 -8 -6.8 00:00 0.0
01/03 06:12 -0.9 -8.2 -7.1 00:00 0.0
01/03 06:11 -0.9 -8.2 -7.8 00:00 0.0
01/03 06:10 -0.9 -8.2 -7.3 00:00 0.0
01/03 06:09 -0.9 -8.1 -7.1 00:00 0.0
01/03 06:08 -1.0 -8.2 -7 00:00 0.0
01/03 06:07 -0.9 -8.1 -7.1 00:00 0.0
01/03 06:06 -1.0 -8.3 -7.2 00:00 0.0
01/03 06:05 -1.0 -8.3 -7.9 00:00 0.0
01/03 06:04 -0.9 -8.1 -7.6 00:00 0.0
01/03 06:03 -0.9 -8 -6.9 00:00 0.0
01/03 06:02 -1.0 -8.2 -7.2 00:00 0.0
01/03 06:01 -1.1 -8.3 -6.9 00:00 0.0
01/03 06:00 -1.1 -8.3 -7.3 00:00 0.0
01/03 05:59 -1.2 -8.3 -6.8 00:00 0.0
01/03 05:58 -1.3 -8.5 -7.3 00:00 0.0
01/03 05:57 -1.3 -8.5 -7.7 00:00 0.0
01/03 05:56 -1.3 -8.5 -7.9 00:00 0.0
01/03 05:55 -1.2 -8.3 -7.2 00:00 0.0
01/03 05:54 -1.3 -8.4 -7.1 00:00 0.0
01/03 05:53 -1.3 -8.4 -7.3 00:00 0.0
01/03 05:52 -1.3 -8.5 -7.5 00:00 0.0
01/03 05:51 -1.2 -8.3 -7.2 00:00 0.0
01/03 05:50 -1.1 -8.2 -6.7 00:00 0.0
01/03 05:49 -1.1 -8.2 -7.3 00:00 0.0
01/03 05:48 -1.2 -8.4 -7.6 00:00 0.0
01/03 05:47 -1.2 -8.4 -8.1 00:00 0.0
01/03 05:46 -1.1 -8.3 -8.4 00:00 0.0
01/03 05:45 -1.0 -8.1 -7.9 00:00 0.0
01/03 05:44 -1.1 -8.3 -8.6 00:00 0.0
01/03 05:43 -1.1 -8.3 -8.4 00:00 0.0
01/03 05:42 -1.2 -8.4 -9.7 00:00 0.0
01/03 05:41 -1.2 -8.4 -8.7 00:00 0.0
01/03 05:40 -1.3 -8.6 -10 00:00 0.0
01/03 05:39 -1.3 -8.6 -8.8 00:00 0.0
01/03 05:38 -1.3 -8.6 -8.6 00:00 0.0
01/03 05:37 -1.3 -8.6 -8.8 00:00 0.0
01/03 05:36 -1.3 -8.5 -9.3 00:00 0.0
01/03 05:35 -1.1 -8.2 -8.9 00:00 0.0
01/03 05:34 -1.0 -8.1 -8.3 00:00 0.0
01/03 05:33 -0.9 -7.9 -7.3 00:00 0.0
01/03 05:32 -0.9 -8 -7.6 00:00 0.0
01/03 05:31 -1.0 -8.1 -7.4 00:00 0.0
01/03 05:30 -1.2 -8.3 -8.7 00:00 0.0
01/03 05:29 -1.3 -8.4 -8.2 00:00 0.0
01/03 05:28 -1.3 -8.4 -8.6 00:00 0.0
01/03 05:27 -1.2 -8.2 -7.2 00:00 0.0
01/03 05:26 -1.2 -8.3 -6.8 00:00 0.0
01/03 05:25 -1.5 -8.7 -7.3 00:00 0.0
01/03 05:24 -1.7 -9 -7.7 00:00 0.0
01/03 05:23 -1.6 -8.9 -7.6 00:00 0.0
01/03 05:22 -1.6 -8.8 -7.2 00:00 0.0
01/03 05:21 -1.5 -8.7 -6.7 00:00 0.0
01/03 05:20 -1.4 -8.6 -6.2 00:00 0.0
01/03 05:19 -1.4 -8.6 -6 00:00 0.0
01/03 05:18 -1.5 -8.8 -6.5 00:00 0.0
01/03 05:17 -1.6 -8.9 -7 00:00 0.0
01/03 05:16 -1.4 -8.6 -6.8 00:00 0.0
01/03 05:15 -1.3 -8.5 -6.5 00:00 0.0
01/03 05:14 -1.3 -8.5 -6.9 00:00 0.0
01/03 05:13 -1.2 -8.3 -7.4 00:00 0.0
01/03 05:12 -1.2 -8.4 -7.2 00:00 0.0
01/03 05:11 -1.2 -8.4 -7.4 00:00 0.0
01/03 05:10 -1.3 -8.5 -8.6 00:00 0.0
01/03 05:09 -1.2 -8.4 -8.3 00:00 0.0
01/03 05:08 -1.1 -8.2 -7.8 00:00 0.0
01/03 05:07 -1.2 -8.4 -7.8 00:00 0.0
01/03 05:06 -1.1 -8.4 -8.2 00:00 0.0
01/03 05:05 -1.1 -8.4 -7.5 00:00 0.0
01/03 05:04 -1.1 -8.4 -8 00:00 0.0
01/03 05:03 -1.2 -8.5 -8.7 00:00 0.0
01/03 05:02 -1.2 -8.5 -8.5 00:00 0.0
01/03 05:01 -1.2 -8.5 -8.3 00:00 0.0
01/03 05:00 -1.2 -8.5 -7.6 00:00 0.0
01/03 04:59 -1.4 -8.8 -8.7 00:00 0.0
01/03 04:58 -1.4 -8.7 -8.3 00:00 0.0
01/03 04:57 -1.3 -8.6 -8.6 00:00 0.0
01/03 04:56 -1.1 -8.3 -8 00:00 0.0
01/03 04:55 -1.1 -8.2 -7.3 00:00 0.0
01/03 04:54 -1.1 -8.2 -7.8 00:00 0.0
01/03 04:53 -1.1 -8.2 -7.5 00:00 0.0
01/03 04:52 -1.2 -8.4 -7.4 00:00 0.0
01/03 04:51 -1.1 -8.2 -7.3 00:00 0.0
01/03 04:50 -1.1 -8.2 -7.5 00:00 0.0
01/03 04:49 -1.1 -8.2 -7.1 00:00 0.0
01/03 04:48 -1.2 -8.3 -7 00:00 0.0
01/03 04:47 -1.3 -8.5 -7.5 00:00 0.0
01/03 04:46 -1.3 -8.6 -7.7 00:00 0.0
01/03 04:45 -1.3 -8.5 -7.9 00:00 0.0
01/03 04:44 -1.2 -8.4 -7.6 00:00 0.0
01/03 04:43 -1.3 -8.5 -7.7 00:00 0.0
01/03 04:42 -1.2 -8.3 -7.6 00:00 0.0
01/03 04:41 -1.2 -8.3 -7.8 00:00 0.0
01/03 04:40 -1.2 -8.4 -7.6 00:00 0.0
01/03 04:39 -1.1 -8.2 -7.8 00:00 0.0
01/03 04:38 -0.9 -7.9 -6.7 00:00 0.0
01/03 04:37 -1.0 -8.1 -7.7 00:00 0.0
01/03 04:36 -0.9 -7.9 -6.9 00:00 0.0
01/03 04:35 -1.0 -8 -6.8 00:00 0.0
01/03 04:34 -1.2 -8.3 -7.6 00:00 0.0
01/03 04:33 -1.3 -8.4 -7.5 00:00 0.0
01/03 04:32 -1.4 -8.6 -8 00:00 0.0
01/03 04:31 -1.3 -8.4 -7.7 00:00 0.0
01/03 04:30 -1.3 -8.4 -7.3 00:00 0.0
01/03 04:29 -1.5 -8.6 -8.1 00:00 0.0
01/03 04:28 -1.5 -8.6 -8.1 00:00 0.0
01/03 04:27 -1.5 -8.6 -7.7 00:00 0.0
01/03 04:26 -1.5 -8.7 -7.5 00:00 0.0
01/03 04:25 -1.3 -8.4 -7.1 00:00 0.0
01/03 04:24 -1.3 -8.4 -6.5 00:00 0.0
01/03 04:23 -1.4 -8.5 -6.6 00:00 0.0
01/03 04:22 -1.6 -8.8 -7.2 00:00 0.0
01/03 04:21 -1.4 -8.5 -6.4 00:00 0.0
01/03 04:20 -1.7 -8.8 -7.1 00:00 0.0
01/03 04:19 -1.6 -8.7 -7 00:00 0.0
01/03 04:18 -1.6 -8.7 -7 00:00 0.0
01/03 04:17 -1.5 -8.6 -7.1 00:00 0.0
01/03 04:16 -1.5 -8.6 -7.3 00:00 0.0
01/03 04:15 -1.5 -8.6 -7.1 00:00 0.0
01/03 04:14 -1.4 -8.4 -6.2 00:00 0.0
01/03 04:13 -1.5 -8.5 -6.3 00:00 0.0
01/03 04:12 -1.6 -8.7 -6.6 00:00 0.0
01/03 04:11 -1.7 -8.7 -6.3 00:00 0.0
01/03 04:10 -1.8 -8.9 -6.6 00:00 0.0
01/03 04:09 -1.7 -8.8 -6.1 00:00 0.0
01/03 04:08 -1.8 -8.9 -6.2 00:00 0.0
01/03 04:07 -1.9 -8.9 -6.5 00:00 0.0
01/03 04:06 -1.9 -8.8 -6.2 00:00 0.0
01/03 04:05 -2.0 -8.8 -6.3 00:00 0.0
01/03 04:04 -1.8 -8.5 -6.1 00:00 0.0
01/03 04:03 -1.7 -8.3 -5.6 00:00 0.0
01/03 04:02 -1.6 -8.2 -5.5 00:00 0.0
01/03 04:01 -1.8 -8.5 -5.5 00:00 0.0
01/03 04:00 -1.9 -8.7 -5.6 00:00 0.0
01/03 03:59 -1.8 -8.6 -5.5 00:00 0.0
01/03 03:58 -1.7 -8.4 -5.1 00:00 0.0
01/03 03:57 -1.8 -8.6 -4.7 00:00 0.0
01/03 03:56 -1.9 -8.8 -4.6 00:00 0.0
01/03 03:55 -2.1 -9.1 -4.8 00:00 0.0
01/03 03:54 -2.2 -9.2 -4.7 00:00 0.0
01/03 03:53 -2.3 -9.3 -5 00:00 0.0
01/03 03:52 -2.3 -9.3 -5 00:00 0.0
01/03 03:51 -2.3 -9.3 -5.3 00:00 0.0
01/03 03:50 -2.1 -9.1 -5 00:00 0.0
01/03 03:49 -2.0 -8.9 -4.7 00:00 0.0
01/03 03:48 -2.1 -9 -4.6 00:00 0.0
01/03 03:47 -2.2 -9.1 -4.7 00:00 0.0
01/03 03:46 -2.4 -9.4 -4.8 00:00 0.0
01/03 03:45 -2.5 -9.5 -4.7 00:00 0.0
01/03 03:44 -2.6 -9.6 -4.8 00:00 0.0
01/03 03:43 -2.6 -9.6 -4.6 00:00 0.0
01/03 03:42 -2.7 -9.8 -4.7 00:00 0.0
01/03 03:41 -2.6 -9.7 -4.8 00:00 0.0
01/03 03:40 -2.5 -9.7 -4.7 00:00 0.0
01/03 03:39 -2.5 -9.7 -5 00:00 0.0
01/03 03:38 -2.3 -9.5 -4.8 00:00 0.0
01/03 03:37 -2.1 -9.2 -4.8 00:00 0.0
01/03 03:36 -1.9 -9 -4.8 00:00 0.0
01/03 03:35 -1.8 -8.9 -4.7 00:00 0.0
01/03 03:34 -2.0 -9.2 -4.7 00:00 0.0
01/03 03:33 -2.3 -9.6 -5.3 00:00 0.0
01/03 03:32 -2.2 -9.5 -5.4 00:00 0.0
01/03 03:31 -2.1 -9.4 -5.5 00:00 0.0
01/03 03:30 -2.0 -9.3 -5.9 00:00 0.0
01/03 03:29 -1.9 -9.2 -5.8 00:00 0.0
01/03 03:28 -1.8 -9.1 -5.9 00:00 0.0
01/03 03:27 -1.8 -9.1 -6.2 00:00 0.0
01/03 03:26 -1.6 -8.9 -6 00:00 0.0
01/03 03:25 -1.6 -8.9 -5.9 00:00 0.0
01/03 03:24 -1.5 -8.8 -6.1 00:00 0.0
01/03 03:23 -1.3 -8.5 -6.1 00:00 0.0
01/03 03:22 -1.2 -8.4 -5.7 00:00 0.0
01/03 03:21 -1.5 -8.8 -6.5 00:00 0.0
01/03 03:20 -1.6 -9 -7.2 00:00 0.0
01/03 03:19 -1.5 -8.8 -7.7 00:00 0.0
01/03 03:18 -1.3 -8.5 -7.1 00:00 0.0
01/03 03:17 -1.1 -8.2 -6.9 00:00 0.0
01/03 03:16 -1.2 -8.3 -7 00:00 0.0
01/03 03:15 -1.3 -8.4 -8.2 00:00 0.0
01/03 03:14 -1.4 -8.5 -8.3 00:00 0.0
01/03 03:13 -1.4 -8.5 -7.8 00:00 0.0
01/03 03:12 -1.5 -8.6 -8.1 00:00 0.0
01/03 03:11 -1.5 -8.7 -8.6 00:00 0.0
01/03 03:10 -1.4 -8.5 -8 00:00 0.0
01/03 03:09 -1.3 -8.2 -6.7 00:00 0.0
01/03 03:08 -1.3 -8.2 -6.7 00:00 0.0
01/03 03:07 -1.4 -8.4 -7.4 00:00 0.0
01/03 03:06 -1.4 -8.5 -7 00:00 0.0
01/03 03:05 -1.6 -8.8 -6.8 00:00 0.0
01/03 03:04 -1.8 -9 -7.6 00:00 0.0
01/03 03:03 -1.8 -9 -6.8 00:00 0.0
01/03 03:02 -1.6 -8.6 -7 00:00 0.0
01/03 03:01 -1.6 -8.6 -6.4 00:00 0.0
01/03 03:00 -1.7 -8.7 -6.5 00:00 0.0
01/03 02:59 -1.8 -8.9 -6.6 00:00 0.0
01/03 02:58 -1.8 -8.9 -6.4 00:00 0.0
01/03 02:57 -1.7 -8.8 -6.3 00:00 0.0
01/03 02:56 -1.7 -8.8 -6.1 00:00 0.0
01/03 02:55 -1.8 -8.9 -5.9 00:00 0.0
01/03 02:54 -2.2 -9.5 -5.6 00:00 0.0
01/03 02:53 -2.6 -10 -5.6 00:00 0.0
01/03 02:52 -2.6 -10.1 -5.8 00:00 0.0
01/03 02:51 -2.5 -10 -5.7 00:00 0.0
01/03 02:50 -2.1 -9.5 -5.5 00:00 0.0
01/03 02:49 -1.9 -9.3 -5.4 00:00 0.0
01/03 02:48 -1.9 -9.3 -5.6 00:00 0.0
01/03 02:47 -2.2 -9.7 -6.3 00:00 0.0
01/03 02:46 -2.3 -9.9 -7.1 00:00 0.0
01/03 02:45 -2.2 -9.7 -6.4 00:00 0.0
01/03 02:44 -2.2 -9.7 -6.8 00:00 0.0
01/03 02:43 -2.0 -9.4 -7 00:00 0.0
01/03 02:42 -1.8 -9 -6.2 00:00 0.0
01/03 02:41 -1.8 -9 -6.4 00:00 0.0
01/03 02:40 -2.0 -9.2 -6.4 00:00 0.0
01/03 02:39 -2.0 -9.2 -6.3 00:00 0.0
01/03 02:38 -2.1 -9.4 -6 00:00 0.0
01/03 02:37 -2.2 -9.5 -5.7 00:00 0.0
01/03 02:36 -2.2 -9.5 -5.2 00:00 0.0
01/03 02:35 -2.2 -9.5 -5.1 00:00 0.0
01/03 02:34 -2.2 -9.5 -4.7 00:00 0.0
01/03 02:33 -2.3 -9.7 -5 00:00 0.0
01/03 02:32 -2.2 -9.6 -5.2 00:00 0.0
01/03 02:31 -2.1 -9.5 -5.6 00:00 0.0
01/03 02:30 -1.9 -9.2 -5.6 00:00 0.0
01/03 02:29 -1.7 -8.9 -5.8 00:00 0.0
01/03 02:28 -1.5 -8.7 -5.8 00:00 0.0
01/03 02:27 -1.7 -9 -6.3 00:00 0.0
01/03 02:26 -1.6 -8.8 -6.4 00:00 0.0
01/03 02:25 -1.6 -8.7 -6.8 00:00 0.0
01/03 02:24 -1.4 -8.4 -6.8 00:00 0.0
01/03 02:23 -1.0 -7.8 -6.4 00:00 0.0
01/03 02:22 -1.1 -7.9 -6.3 00:00 0.0
01/03 02:21 -1.1 -7.9 -6.7 00:00 0.0
01/03 02:20 -1.2 -8.1 -6.4 00:00 0.0
01/03 02:19 -1.4 -8.3 -7 00:00 0.0
01/03 02:18 -1.4 -8.3 -7 00:00 0.0
01/03 02:17 -1.3 -8.2 -7.3 00:00 0.0
01/03 02:16 -1.0 -7.8 -5.8 00:00 0.0
01/03 02:15 -1.2 -8.1 -6.4 00:00 0.0
01/03 02:14 -1.1 -8 -6.9 00:00 0.0
01/03 02:13 -1.1 -8 -6.7 00:00 0.0
01/03 02:12 -1.0 -7.9 -6.6 00:00 0.0
01/03 02:11 -1.2 -8.2 -7.2 00:00 0.0
01/03 02:10 -1.2 -8.3 -7.4 00:00 0.0
01/03 02:09 -1.1 -8.2 -6.5 00:00 0.0
01/03 02:08 -1.2 -8.4 -7 00:00 0.0
01/03 02:07 -1.2 -8.4 -7 00:00 0.0
01/03 02:06 -1.2 -8.4 -7.6 00:00 0.0
01/03 02:05 -1.3 -8.6 -7.3 00:00 0.0
01/03 02:04 -1.3 -8.5 -7.5 00:00 0.0
01/03 02:03 -1.4 -8.7 -7.4 00:00 0.0
01/03 02:02 -1.5 -8.8 -7.5 00:00 0.0
01/03 02:01 -1.6 -9 -8 00:00 0.0
01/03 02:00 -1.5 -8.9 -7.9 00:00 0.0
01/03 01:59 -1.2 -8.5 -8.1 00:00 0.0
01/03 01:58 -1.1 -8.3 -8.4 00:00 0.0
01/03 01:57 -1.1 -8.3 -8 00:00 0.0
01/03 01:56 -1.2 -8.4 -8.7 00:00 0.0
01/03 01:55 -1.2 -8.4 -7.6 00:00 0.0
01/03 01:54 -1.4 -8.6 -7.8 00:00 0.0
01/03 01:53 -1.5 -8.8 -7.5 00:00 0.0
01/03 01:52 -1.5 -8.8 -8.3 00:00 0.0
01/03 01:51 -1.5 -8.8 -8.3 00:00 0.0
01/03 01:50 -1.4 -8.6 -7.8 00:00 0.0
01/03 01:49 -1.5 -8.8 -7.5 00:00 0.0
01/03 01:48 -1.4 -8.7 -7.4 00:00 0.0
01/03 01:47 -1.4 -8.6 -7.4 00:00 0.0
01/03 01:46 -1.1 -8.2 -6.3 00:00 0.0
01/03 01:45 -1.2 -8.4 -6.2 00:00 0.0
01/03 01:44 -1.3 -8.5 -6.9 00:00 0.0
01/03 01:43 -1.3 -8.5 -8.2 00:00 0.0
01/03 01:42 -1.2 -8.4 -6.6 00:00 0.0
01/03 01:41 -1.2 -8.4 -7 00:00 0.0
01/03 01:40 -1.2 -8.4 -7.2 00:00 0.0
01/03 01:39 -1.2 -8.5 -7.4 00:00 0.0
01/03 01:38 -1.1 -8.3 -6.9 00:00 0.0
01/03 01:37 -1.0 -8.2 -6.6 00:00 0.0
01/03 01:36 -1.2 -8.5 -6.8 00:00 0.0
01/03 01:35 -1.3 -8.6 -8.4 00:00 0.0
01/03 01:34 -1.1 -8.3 -6.9 00:00 0.0
01/03 01:33 -1.2 -8.5 -7.2 00:00 0.0
01/03 01:32 -1.2 -8.5 -7.4 00:00 0.0
01/03 01:31 -1.2 -8.5 -7.4 00:00 0.0
01/03 01:30 -1.1 -8.4 -7.3 00:00 0.0
01/03 01:29 -1.2 -8.6 -7.4 00:00 0.0
01/03 01:28 -1.2 -8.6 -7 00:00 0.0
01/03 01:27 -1.3 -8.9 -7.5 00:00 0.0
01/03 01:26 -1.2 -8.7 -6.6 00:00 0.0
01/03 01:25 -1.2 -8.7 -6.6 00:00 0.0
01/03 01:24 -1.2 -8.8 -6 00:00 0.0
01/03 01:23 -1.3 -8.9 -6.5 00:00 0.0
01/03 01:22 -1.3 -8.9 -6.1 00:00 0.0
01/03 01:21 -1.5 -9.1 -6.7 00:00 0.0
01/03 01:20 -1.5 -9.1 -7.1 00:00 0.0
01/03 01:19 -1.4 -8.9 -6.6 00:00 0.0
01/03 01:18 -1.5 -9 -6.1 00:00 0.0
01/03 01:17 -1.6 -9.1 -6.4 00:00 0.0
01/03 01:16 -1.4 -8.8 -5.9 00:00 0.0
01/03 01:15 -1.5 -8.8 -5.6 00:00 0.0
01/03 01:14 -1.7 -9.1 -5.8 00:00 0.0
01/03 01:13 -1.6 -8.9 -5 00:00 0.0
01/03 01:12 -1.7 -9.1 -4.7 00:00 0.0
01/03 01:11 -1.8 -9.3 -4.7 00:00 0.0
01/03 01:10 -1.8 -9.3 -4.5 00:00 0.0
01/03 01:09 -1.9 -9.5 -4.6 00:00 0.0
01/03 01:08 -2.0 -9.7 -5 00:00 0.0
01/03 01:07 -1.8 -9.5 -4.8 00:00 0.0
01/03 01:06 -1.6 -9.2 -4.8 00:00 0.0
01/03 01:05 -1.2 -8.7 -3.9 00:00 0.0
01/03 01:04 -1.5 -9.1 -4.4 00:00 0.0
01/03 01:03 -1.7 -9.4 -4.7 00:00 0.0
01/03 01:02 -1.8 -9.5 -4.7 00:00 0.0
01/03 01:01 -1.8 -9.5 -4.8 00:00 0.0
01/03 01:00 -1.7 -9.3 -4.7 00:00 0.0
01/03 00:59 -1.5 -8.9 -4.2 00:00 0.0
01/03 00:58 -1.6 -9 -4.6 00:00 0.0
01/03 00:57 -1.6 -8.8 -5 00:00 0.0
01/03 00:56 -1.5 -8.6 -4.9 00:00 0.0
01/03 00:55 -1.5 -8.7 -5.1 00:00 0.0
01/03 00:54 -1.4 -8.6 -4.6 00:00 0.0
01/03 00:53 -1.4 -8.6 -4.6 00:00 0.0
01/03 00:52 -1.2 -8.3 -4.4 00:00 0.0
01/03 00:51 -1.2 -8.4 -4.3 00:00 0.0
01/03 00:50 -1.2 -8.4 -4.3 00:00 0.0
01/03 00:49 -1.4 -8.7 -4.4 00:00 0.0
01/03 00:48 -1.5 -8.9 -4.5 00:00 0.0
01/03 00:47 -1.5 -8.9 -4.7 00:00 0.0
01/03 00:46 -1.5 -9 -4.4 00:00 0.0
01/03 00:45 -1.6 -9.1 -4.6 00:00 0.0
01/03 00:44 -1.6 -9.1 -4.5 00:00 0.0
01/03 00:43 -1.6 -9 -4.1 00:00 0.0
01/03 00:42 -1.7 -9.1 -4.4 00:00 0.0
01/03 00:41 -1.7 -9.1 -4.4 00:00 0.0
01/03 00:40 -1.5 -8.7 -3.9 00:00 0.0
01/03 00:39 -1.6 -8.8 -3.8 00:00 0.0
01/03 00:38 -1.7 -8.8 -3.9 00:00 0.0
01/03 00:37 -1.9 -9.1 -4.1 00:00 0.0
01/03 00:36 -2.1 -9.5 -4.3 00:00 0.0
01/03 00:35 -1.9 -9.3 -4 00:00 0.0
01/03 00:34 -1.8 -9.3 -3.7 00:00 0.0
01/03 00:33 -2.0 -9.6 -3.7 00:00 0.0
01/03 00:32 -2.2 -9.8 -3.9 00:00 0.0
01/03 00:31 -2.3 -9.9 -4 00:00 0.0
01/03 00:30 -2.3 -9.9 -4 00:00 0.0
01/03 00:29 -2.3 -9.9 -3.9 00:00 0.0
01/03 00:28 -2.4 -10.1 -4 00:00 0.0
01/03 00:27 -2.5 -10.2 -4.1 00:00 0.0
01/03 00:26 -2.5 -10.3 -4.1 00:00 0.0
01/03 00:25 -2.5 -10.1 -4.1 00:00 0.0
01/03 00:24 -2.7 -10.3 -4.3 00:00 0.0
01/03 00:23 -2.6 -10.1 -4 00:00 0.0
01/03 00:22 -2.7 -10.1 -4.1 00:00 0.0
01/03 00:21 -2.8 -10.3 -4.4 00:00 0.0
01/03 00:20 -2.9 -10.5 -4.5 00:00 0.0
01/03 00:19 -2.8 -10.5 -4.4 00:00 0.0
01/03 00:18 -2.8 -10.5 -4.4 00:00 0.0
01/03 00:17 -2.7 -10.4 -4.4 00:00 0.0
01/03 00:16 -2.4 -10 -4 00:00 0.0
01/03 00:15 -2.2 -9.8 -3.8 00:00 0.0
01/03 00:14 -2.5 -10.2 -4.2 00:00 0.0
01/03 00:13 -2.6 -10.4 -4.3 00:00 0.0
01/03 00:12 -2.5 -10.3 -4.4 00:00 0.0
01/03 00:11 -2.3 -10.1 -4 00:00 0.0
01/03 00:10 -2.4 -10.2 -4.3 00:00 0.0
01/03 00:09 -2.2 -9.9 -4.1 00:00 0.0
01/03 00:08 -2.4 -10.2 -4.6 00:00 0.0
01/03 00:07 -2.4 -10.2 -4.8 00:00 0.0
01/03 00:06 -2.3 -10.1 -4.5 00:00 0.0
01/03 00:05 -2.3 -10.1 -4.5 00:00 0.0
01/03 00:04 -2.3 -10 -4.5 00:00 0.0
01/03 00:03 -2.6 -10.5 -5.1 00:00 0.0
01/03 00:02 -2.4 -10.2 -4.9 00:00 0.0
01/03 00:01 -2.2 -10 -4.7 00:00 0.0
01/03 00:00 -2.0 -9.7 -4.4 00:00 0.0
28/02 23:59 -1.9 -9.5 -4.3 00:00 0.0
28/02 23:58 -1.7 -9.2 -4.4 00:00 0.0
28/02 23:57 -1.4 -8.8 -4.4 01:32 0.0
28/02 23:56 -1.2 -8.5 -4.6 01:32 0.0
28/02 23:55 -0.8 -8.1 -4.4 01:32 0.0
28/02 23:54 -0.9 -8.2 -4.6 01:32 0.0
28/02 23:53 -1.0 -8.4 -4.7 01:32 0.0
28/02 23:52 -0.9 -8.2 -5 01:32 0.0
28/02 23:51 -0.9 -8.2 -5 01:32 0.0
28/02 23:50 -1.1 -8.5 -5.6 01:32 0.0
28/02 23:49 -1.1 -8.5 -5.8 01:32 0.0
28/02 23:48 -1.3 -8.8 -6.1 01:32 0.0
28/02 23:47 -1.2 -8.7 -6.6 01:32 0.0
28/02 23:46 -1.0 -8.4 -6.2 01:32 0.0
28/02 23:45 -0.7 -7.9 -6.1 01:32 0.0
28/02 23:44 -0.5 -7.6 -5.8 01:32 0.0
28/02 23:43 -0.7 -7.8 -6.9 01:32 0.0
28/02 23:42 -0.6 -7.7 -7.1 01:32 0.0
28/02 23:41 -0.6 -7.7 -6.4 01:32 0.0
28/02 23:40 -0.7 -7.9 -7.2 01:32 0.0
28/02 23:39 -0.6 -7.7 -6.4 01:32 0.0
28/02 23:38 -0.7 -7.8 -5.9 01:32 0.0
28/02 23:37 -0.9 -8.1 -6.5 01:32 0.0
28/02 23:36 -0.9 -8.1 -6.3 01:32 0.0
28/02 23:35 -0.8 -7.9 -6 01:32 0.0
28/02 23:34 -0.8 -7.9 -6.4 01:32 0.0
28/02 23:33 -0.7 -7.7 -5.9 01:32 0.0
28/02 23:32 -0.5 -7.4 -6.1 01:32 0.0
28/02 23:31 -0.5 -7.4 -6.8 01:32 0.0
28/02 23:30 -0.3 -7.1 -6 01:32 0.0
28/02 23:29 -0.4 -7.2 -6.9 01:32 0.0
28/02 23:28 -0.2 -6.9 -6.3 01:32 0.0
28/02 23:27 -0.3 -7 -5 01:32 0.0
28/02 23:26 -0.6 -7.5 -5.1 01:32 0.0
28/02 23:25 -0.9 -7.9 -5.6 01:32 0.0
28/02 23:24 -0.8 -7.8 -5.1 01:32 0.0
28/02 23:23 -0.8 -7.8 -4.7 01:32 0.0
28/02 23:22 -1.0 -8.1 -4.7 01:32 0.0
28/02 23:21 -1.1 -8.2 -5.2 01:32 0.0
28/02 23:20 -1.1 -8.2 -5.6 01:32 0.0
28/02 23:19 -0.9 -7.8 -4.8 01:32 0.0
28/02 23:18 -0.9 -7.8 -4.5 01:32 0.0
28/02 23:17 -1.1 -8 -5 01:32 0.0
28/02 23:16 -1.1 -8 -5 01:32 0.0
28/02 23:15 -1.0 -7.8 -4.9 01:32 0.0
28/02 23:14 -1.0 -7.7 -4.6 01:32 0.0
28/02 23:13 -1.0 -7.6 -4.4 01:32 0.0
28/02 23:12 -1.0 -7.5 -4.4 01:32 0.0
28/02 23:11 -0.9 -7.3 -4 01:32 0.0
28/02 23:10 -1.2 -7.6 -4.3 01:32 0.0
28/02 23:09 -1.2 -7.6 -4.1 01:32 0.0
28/02 23:08 -1.5 -8 -4.2 01:32 0.0
28/02 23:07 -1.5 -8 -4 01:32 0.0
28/02 23:06 -1.6 -8.1 -4.1 01:32 0.0
28/02 23:05 -1.6 -8.1 -4 01:32 0.0
28/02 23:04 -1.6 -8.1 -3.8 01:32 0.0
28/02 23:03 -1.8 -8.5 -3.9 01:32 0.0
28/02 23:02 -1.9 -8.7 -4 01:32 0.0
28/02 23:01 -1.9 -8.8 -4 01:32 0.0
28/02 23:00 -2.0 -9 -3.9 01:32 0.0
28/02 22:59 -2.1 -9.2 -4 01:32 0.0
28/02 22:58 -2.1 -9.3 -4 01:32 0.0
28/02 22:57 -2.3 -9.6 -4.2 01:32 0.0
28/02 22:56 -2.3 -9.7 -4.2 01:32 0.0
28/02 22:55 -2.2 -9.6 -4.1 01:32 0.0
28/02 22:54 -2.2 -9.6 -3.9 01:32 0.0
28/02 22:53 -2.2 -9.6 -4.1 01:32 0.0
28/02 22:52 -2.2 -9.4 -4.1 01:32 0.0
28/02 22:51 -2.2 -9.3 -4.1 01:32 0.0
28/02 22:50 -2.1 -9.1 -4 01:32 0.0
28/02 22:49 -2.1 -9 -4.2 01:32 0.0
28/02 22:48 -2.0 -8.8 -4.2 01:32 0.0
28/02 22:47 -1.9 -8.6 -4.3 01:32 0.0
28/02 22:46 -1.8 -8.4 -4.2 01:32 0.0
28/02 22:45 -1.7 -8.3 -4.1 01:32 0.0
28/02 22:44 -1.7 -8.2 -3.8 01:32 0.0
28/02 22:43 -1.8 -8.4 -4 01:32 0.0
28/02 22:42 -1.9 -8.6 -4.1 01:32 0.0
28/02 22:41 -1.9 -8.6 -4.3 01:32 0.0
28/02 22:40 -1.8 -8.6 -4.2 01:32 0.0
28/02 22:39 -1.8 -8.6 -4.2 01:32 0.0
28/02 22:38 -1.8 -8.7 -4.3 01:32 0.0
28/02 22:37 -2.0 -9 -4.5 01:32 0.0
28/02 22:36 -2.0 -9.1 -4.7 01:32 0.0
28/02 22:35 -2.0 -9.1 -4.5 01:32 0.0
28/02 22:34 -2.1 -9.3 -5 01:32 0.0
28/02 22:33 -1.9 -9 -4.8 01:32 0.0
28/02 22:32 -1.9 -9 -4.8 01:32 0.0
28/02 22:31 -1.7 -8.7 -4.7 01:32 0.0
28/02 22:30 -1.6 -8.6 -4.8 01:32 0.0
28/02 22:29 -1.4 -8.4 -4.8 01:32 0.0
28/02 22:28 -1.3 -8.2 -5 01:32 0.0
28/02 22:27 -1.3 -8.2 -5.6 01:32 0.0
28/02 22:26 -1.2 -8.1 -5.5 01:32 0.0
28/02 22:25 -1.2 -8.1 -5.7 01:32 0.0
28/02 22:24 -1.2 -8.1 -5.7 01:32 0.0
28/02 22:23 -1.2 -8.1 -5.7 01:32 0.0
28/02 22:22 -1.2 -8 -5.7 01:32 0.0
28/02 22:21 -1.3 -8.2 -5.9 01:32 0.0
28/02 22:20 -1.2 -8 -6.2 01:32 0.0
28/02 22:19 -1.1 -7.9 -5.9 01:32 0.0
28/02 22:18 -1.3 -8.1 -6.3 01:32 0.0
28/02 22:17 -1.4 -8.3 -7 01:32 0.0
28/02 22:16 -1.3 -8.2 -7.5 01:32 0.0
28/02 22:15 -1.1 -7.9 -7.3 01:32 0.0
28/02 22:14 -1.1 -7.9 -7.1 01:32 0.0
28/02 22:13 -1.1 -8 -6.9 01:32 0.0
28/02 22:12 -1.0 -7.9 -6.6 01:32 0.0
28/02 22:11 -1.0 -7.9 -7.2 01:32 0.0
28/02 22:10 -0.8 -7.6 -6.4 01:32 0.0
28/02 22:09 -0.7 -7.5 -5.9 01:32 0.0
28/02 22:08 -0.8 -7.6 -6.6 01:32 0.0
28/02 22:07 -0.7 -7.5 -7.2 01:32 0.0
28/02 22:06 -0.7 -7.4 -8.3 01:32 0.0
28/02 22:05 -0.4 -7 -7.7 01:32 0.0
28/02 22:04 -0.5 -7 -7.8 01:32 0.0
28/02 22:03 -0.5 -6.9 -8.1 01:32 0.0
28/02 22:02 -0.5 -6.9 -8.1 01:32 0.0
28/02 22:01 -0.5 -6.8 -8.3 01:32 0.0
28/02 22:00 -0.6 -7 -8.6 01:32 0.0
28/02 21:59 -0.6 -7 -8.4 01:32 0.0
28/02 21:58 -0.8 -7.3 -7.7 01:32 0.0
28/02 21:57 -1.0 -7.6 -9 01:32 0.0
28/02 21:56 -0.8 -7.4 -8.4 01:32 0.0
28/02 21:55 -0.8 -7.4 -7 01:32 0.0
28/02 21:54 -0.9 -7.5 -7.8 01:32 0.0
28/02 21:53 -1.0 -7.8 -8.1 01:32 0.0
28/02 21:52 -1.0 -7.9 -8.1 01:32 0.0
28/02 21:51 -0.9 -7.7 -8.7 01:32 0.0
28/02 21:50 -0.8 -7.6 -8.6 01:32 0.0
28/02 21:49 -0.7 -7.4 -7.6 01:32 0.0
28/02 21:48 -0.7 -7.4 -8.3 01:32 0.0
28/02 21:47 -0.8 -7.5 -9 01:32 0.0
28/02 21:46 -0.7 -7.3 -9.2 01:32 0.0
28/02 21:45 -0.7 -7.3 -9.2 01:32 0.0
28/02 21:44 -0.6 -7.2 -8.9 01:32 0.0
28/02 21:43 -0.6 -7.2 -9.1 01:32 0.0
28/02 21:42 -0.3 -6.9 -8.3 01:32 0.0
28/02 21:41 -0.3 -6.9 -7.7 01:32 0.0
28/02 21:40 -0.4 -7 -7.7 01:32 0.0
28/02 21:39 -0.4 -7 -8 01:32 0.0
28/02 21:38 -0.4 -7.1 -8.2 01:32 0.0
28/02 21:37 -0.3 -7 -7.4 01:32 0.0
28/02 21:36 -0.5 -7.3 -8.3 01:32 0.0
28/02 21:35 -0.5 -7.4 -8.8 01:32 0.0
28/02 21:34 -0.4 -7.3 -8.4 01:32 0.0
28/02 21:33 -0.3 -7.2 -7.7 01:32 0.0
28/02 21:32 -0.5 -7.5 -8.8 01:32 0.0
28/02 21:31 -0.5 -7.5 -9 01:32 0.0
28/02 21:30 -0.4 -7.4 -9.2 01:32 0.0
28/02 21:29 -0.3 -7.3 -7.9 01:32 0.0
28/02 21:28 -0.4 -7.5 -9.4 01:32 0.0
28/02 21:27 -0.3 -7.4 -8.6 01:32 0.0
28/02 21:26 -0.4 -7.5 -8.7 01:32 0.0
28/02 21:25 -0.5 -7.7 -9.5 01:32 0.0
28/02 21:24 -0.5 -7.7 -8.3 01:32 0.0
28/02 21:23 -0.6 -7.8 -9.3 01:32 0.0
28/02 21:22 -0.5 -7.7 -8.8 01:32 0.0
28/02 21:21 -0.6 -7.8 -9.1 01:32 0.0
28/02 21:20 -0.6 -7.8 -9.1 01:32 0.0
28/02 21:19 -0.5 -7.7 -8.1 01:32 0.0
28/02 21:18 -0.6 -7.8 -9.3 01:32 0.0
28/02 21:17 -0.5 -7.6 -9 01:32 0.0
28/02 21:16 -0.5 -7.6 -9.5 01:32 0.0
28/02 21:15 -0.4 -7.5 -8.7 01:32 0.0
28/02 21:14 -0.4 -7.5 -8.2 01:32 0.0
28/02 21:13 -0.4 -7.6 -8.7 01:32 0.0
28/02 21:12 -0.5 -7.7 -8.3 01:32 0.0
28/02 21:11 -0.5 -7.7 -9 01:32 0.0
28/02 21:10 -0.5 -7.8 -9.3 01:32 0.0
28/02 21:09 -0.3 -7.5 -9.1 01:32 0.0
28/02 21:08 -0.3 -7.5 -7.9 01:32 0.0
28/02 21:07 -0.5 -7.8 -8.1 01:32 0.0
28/02 21:06 -0.5 -7.8 -10 01:32 0.0
28/02 21:05 -0.5 -7.8 -9.3 01:32 0.0
28/02 21:04 -0.6 -7.9 -9.3 01:32 0.0
28/02 21:03 -0.5 -7.8 -10 01:32 0.0
28/02 21:02 -0.5 -7.7 -9.5 01:32 0.0
28/02 21:01 -0.6 -7.9 -9.9 01:32 0.0
28/02 21:00 -0.4 -7.6 -9.9 01:32 0.0
28/02 20:59 -0.3 -7.4 -9.3 01:32 0.0
28/02 20:58 -0.2 -7.3 -9 01:32 0.0
28/02 20:57 -0.2 -7.3 -8.3 01:32 0.0
28/02 20:56 -0.4 -7.6 -8.4 01:32 0.0
28/02 20:55 -0.3 -7.5 -8.8 01:32 0.0
28/02 20:54 -0.3 -7.4 -8.3 01:32 0.0
28/02 20:53 -0.5 -7.7 -7.8 01:32 0.0
28/02 20:52 -0.4 -7.5 -8.4 01:32 0.0
28/02 20:51 -0.4 -7.5 -8.2 01:32 0.0
28/02 20:50 -0.4 -7.4 -8.7 01:32 0.0
28/02 20:49 -0.2 -7.1 -7.6 01:32 0.0
28/02 20:48 -0.3 -7.3 -7.4 01:32 0.0
28/02 20:47 -0.4 -7.4 -8.2 01:32 0.0
28/02 20:46 -0.4 -7.4 -8.9 01:32 0.0
28/02 20:45 -0.3 -7.3 -8.6 01:32 0.0
28/02 20:44 -0.2 -7.2 -7.8 01:32 0.0
28/02 20:43 -0.2 -7.2 -6.5 01:32 0.0
28/02 20:42 -0.3 -7.3 -7.4 01:32 0.0
28/02 20:41 -0.3 -7.3 -7 01:32 0.0
28/02 20:40 -0.4 -7.5 -7.3 01:32 0.0
28/02 20:39 -0.4 -7.5 -7.7 01:32 0.0
28/02 20:38 -0.5 -7.7 -7.8 01:32 0.0
28/02 20:37 -0.3 -7.4 -7.9 01:32 0.0
28/02 20:36 -0.2 -7.3 -6.9 01:32 0.0
28/02 20:35 -0.3 -7.4 -8.1 01:32 0.0
28/02 20:34 -0.2 -7.3 -7.8 01:32 0.0
28/02 20:33 -0.2 -7.3 -8 01:32 0.0
28/02 20:32 -0.2 -7.4 -7.6 01:32 0.0
28/02 20:31 -0.3 -7.5 -8.3 01:32 0.0
28/02 20:30 -0.3 -7.5 -7.4 01:32 0.0
28/02 20:29 -0.3 -7.5 -8.6 01:32 0.0
28/02 20:28 -0.2 -7.4 -8 01:32 0.0
28/02 20:27 -0.2 -7.4 -8 01:32 0.0
28/02 20:26 -0.2 -7.4 -7.6 01:32 0.0
28/02 20:25 -0.2 -7.4 -7.6 01:32 0.0
28/02 20:24 -0.2 -7.4 -7.3 01:32 0.0
28/02 20:23 -0.2 -7.4 -8 01:32 0.0
28/02 20:22 -0.1 -7.3 -8.4 01:32 0.0
28/02 20:21 0.0 -7.1 -7.4 01:32 0.0
28/02 20:20 0.0 -7.2 -6.7 01:32 0.0
28/02 20:19 -0.1 -7.3 -7 01:32 0.0
28/02 20:18 -0.2 -7.5 -8 01:32 0.0
28/02 20:17 -0.1 -7.4 -8.2 01:32 0.0
28/02 20:16 -0.1 -7.4 -7.5 01:32 0.0
28/02 20:15 -0.1 -7.5 -7.7 01:32 0.0
28/02 20:14 -0.2 -7.7 -8.5 01:32 0.0
28/02 20:13 -0.1 -7.6 -7.9 01:32 0.0
28/02 20:12 0.0 -7.5 -7.4 01:32 0.0
28/02 20:11 0.0 -7.6 -7.1 01:32 0.0
28/02 20:10 0.0 -7.7 -6.3 01:32 0.0
28/02 20:09 -0.1 -7.8 -6.8 01:32 0.0
28/02 20:08 -0.2 -7.9 -7.3 01:32 0.0
28/02 20:07 -0.2 -7.9 -8 01:32 0.0
28/02 20:06 -0.2 -7.9 -7.6 01:32 0.0
28/02 20:05 -0.1 -7.8 -7.5 01:32 0.0
28/02 20:04 -0.2 -7.9 -6.7 01:32 0.0
28/02 20:03 -0.4 -8.1 -6.9 01:32 0.0
28/02 20:02 -0.5 -8.2 -7.6 01:32 0.0
28/02 20:01 -0.7 -8.4 -7.8 01:32 0.0
28/02 20:00 -0.8 -8.5 -7.7 01:32 0.0
28/02 19:59 -1.1 -8.8 -6.3 01:32 0.0
28/02 19:58 -1.5 -9.3 -6.1 01:32 0.0
28/02 19:57 -1.3 -9.1 -6.3 01:32 0.0
28/02 19:56 -1.2 -9 -6 01:32 0.0
28/02 19:55 -1.0 -8.7 -5.5 01:32 0.0
28/02 19:54 -0.8 -8.3 -5.1 01:32 0.0
28/02 19:53 -0.5 -7.9 -4.8 01:32 0.0
28/02 19:52 -0.5 -7.9 -5 01:32 0.0
28/02 19:51 -0.5 -7.9 -5.4 01:32 0.0
28/02 19:50 -0.4 -7.8 -4.7 01:32 0.0
28/02 19:49 -0.7 -8.3 -5 01:32 0.0
28/02 19:48 -1.0 -8.7 -6 01:32 0.0
28/02 19:47 -1.0 -8.6 -5.7 01:32 0.0
28/02 19:46 -1.1 -8.7 -6.1 01:32 0.0
28/02 19:45 -0.8 -8.2 -5.3 01:32 0.0
28/02 19:44 -0.9 -8.2 -5.2 01:32 0.0
28/02 19:43 -0.9 -8.1 -5.2 01:32 0.0
28/02 19:42 -0.9 -8 -5.2 01:32 0.0
28/02 19:41 -0.9 -7.9 -5 01:32 0.0
28/02 19:40 -1.0 -8 -4.9 01:32 0.0
28/02 19:39 -0.9 -7.7 -4.5 01:32 0.0
28/02 19:38 -1.0 -7.7 -4.1 01:32 0.0
28/02 19:37 -1.1 -7.6 -4 01:32 0.0
28/02 19:36 -1.2 -7.8 -3.9 01:32 0.0
28/02 19:35 -1.2 -7.8 -3.8 01:32 0.0
28/02 19:34 -1.0 -7.6 -3.4 01:32 0.0
28/02 19:33 -1.0 -7.7 -3.4 01:32 0.0
28/02 19:32 -1.0 -7.8 -3.6 01:32 0.0
28/02 19:31 -1.0 -7.8 -3.7 01:32 0.0
28/02 19:30 -0.8 -7.6 -3.7 01:32 0.0
28/02 19:29 -0.7 -7.6 -3.6 01:32 0.0
28/02 19:28 -0.8 -7.7 -3.9 01:32 0.0
28/02 19:27 -0.8 -7.8 -3.7 01:32 0.0
28/02 19:26 -0.8 -7.9 -4 01:32 0.0
28/02 19:25 -0.7 -7.7 -4.3 01:32 0.0
28/02 19:24 -0.7 -7.7 -4.3 01:32 0.0
28/02 19:23 -0.7 -7.7 -4.6 01:32 0.0
28/02 19:22 -0.5 -7.5 -4.4 01:32 0.0
28/02 19:21 -0.4 -7.3 -4.2 01:32 0.0
28/02 19:20 -0.3 -7.1 -4.1 01:32 0.0
28/02 19:19 -0.3 -7 -4.1 01:32 0.0
28/02 19:18 -0.3 -7 -4.6 01:32 0.0
28/02 19:17 -0.2 -6.8 -4.9 01:32 0.0
28/02 19:16 -0.2 -6.8 -5.1 01:32 0.0
28/02 19:15 -0.1 -6.6 -5 01:32 0.0
28/02 19:14 -0.1 -6.5 -5.8 01:32 0.0
28/02 19:13 0.1 -6.2 -6.4 01:32 0.0
28/02 19:12 0.4 -5.8 -6.8 01:32 0.0
28/02 19:11 0.4 -5.9 -7.5 01:32 0.0
28/02 19:10 0.4 -5.8 -7.5 01:32 0.0
28/02 19:09 0.4 -5.8 -7.5 01:32 0.0
28/02 19:08 0.4 -5.9 -7.2 01:32 0.0
28/02 19:07 0.3 -6.1 -8.3 01:32 0.0
28/02 19:06 0.3 -6.1 -8.8 01:32 0.0
28/02 19:05 0.4 -6 -8.9 01:32 0.0
28/02 19:04 0.3 -6.2 -8.8 01:32 0.0
28/02 19:03 0.3 -6.2 -8.8 01:32 0.0
28/02 19:02 0.3 -6.3 -8.8 01:32 0.0
28/02 19:01 0.3 -6.3 -8.8 01:32 0.0
28/02 19:00 0.4 -6.1 -8.2 01:32 0.0
28/02 18:59 0.3 -6.3 -8 01:32 0.0
28/02 18:58 0.2 -6.5 -9.4 01:32 0.0
28/02 18:57 0.3 -6.3 -8.8 01:32 0.0
28/02 18:56 0.3 -6.3 -8.5 01:32 0.0
28/02 18:55 0.3 -6.3 -8.5 01:32 0.0
28/02 18:54 0.3 -6.3 -8.5 01:32 0.0
28/02 18:53 0.3 -6.3 -7.1 01:32 0.0
28/02 18:52 0.2 -6.4 -8.4 01:32 0.0
28/02 18:51 0.3 -6.3 -8.5 01:32 0.0
28/02 18:50 0.4 -6.2 -7.9 01:32 0.0
28/02 18:49 0.4 -6.2 -7 01:32 0.0
28/02 18:48 0.4 -6.2 -7 01:32 0.0
28/02 18:47 0.3 -6.3 -7.3 01:32 0.0
28/02 18:46 0.4 -6.2 -7.5 01:32 0.0
28/02 18:45 0.4 -6.2 -7.9 01:32 0.0
28/02 18:44 0.4 -6.2 -7.2 01:32 0.0
28/02 18:43 0.3 -6.3 -7.1 01:32 0.0
28/02 18:42 0.3 -6.3 -7.5 01:32 0.0
28/02 18:41 0.4 -6.2 -7.7 01:32 0.0
28/02 18:40 0.4 -6.1 -7.5 01:32 0.0
28/02 18:39 0.3 -6.2 -8.5 01:32 0.0
28/02 18:38 0.3 -6.2 -7.8 01:32 0.0
28/02 18:37 0.3 -6.2 -7.8 01:32 0.0
28/02 18:36 0.4 -6.1 -7.7 01:32 0.0
28/02 18:35 0.4 -6.1 -7.7 01:32 0.0
28/02 18:34 0.5 -5.9 -7.6 01:32 0.0
28/02 18:33 0.5 -5.9 -8.1 01:32 0.0
28/02 18:32 0.6 -5.8 -7.7 01:32 0.0
28/02 18:31 0.6 -5.8 -8 01:32 0.0
28/02 18:30 0.7 -5.8 -7.6 01:32 0.0
28/02 18:29 0.6 -5.9 -7.3 01:32 0.0
28/02 18:28 0.6 -6 -7.7 01:32 0.0
28/02 18:27 0.6 -6 -7.3 01:32 0.0
28/02 18:26 0.5 -6.2 -7.1 01:32 0.0
28/02 18:25 0.4 -6.3 -8.2 01:32 0.0
28/02 18:24 0.4 -6.2 -7.9 01:32 0.0
28/02 18:23 0.3 -6.4 -7.8 01:32 0.0
28/02 18:22 0.4 -6.2 -7.7 01:32 0.0
28/02 18:21 0.4 -6.3 -7.5 01:32 0.0
28/02 18:20 0.4 -6.3 -8.4 01:32 0.0
28/02 18:19 0.5 -6.1 -8.6 01:32 0.0
28/02 18:18 0.5 -6.1 -7.4 01:32 0.0
28/02 18:17 0.5 -6.1 -8.1 01:32 0.0
28/02 18:16 0.8 -5.7 -6.6 01:32 0.0
28/02 18:15 0.8 -5.7 -5.5 01:32 0.0
28/02 18:14 0.6 -6 -5.9 01:32 0.0
28/02 18:13 0.5 -6.2 -7.1 01:32 0.0
28/02 18:12 0.6 -6.1 -7 01:32 0.0
28/02 18:11 0.6 -6 -7.3 01:32 0.0
28/02 18:10 0.6 -6.1 -7.3 01:32 0.0
28/02 18:09 0.7 -5.9 -6.9 01:32 0.0
28/02 18:08 0.5 -6.2 -7.1 01:32 0.0
28/02 18:07 0.4 -6.4 -7.5 01:32 0.0
28/02 18:06 0.4 -6.3 -7.9 01:32 0.0
28/02 18:05 0.5 -6.2 -8.3 01:32 0.0
28/02 18:04 0.6 -6.1 -8 01:32 0.0
28/02 18:03 0.5 -6.2 -8.1 01:32 0.0
28/02 18:02 0.5 -6.2 -8.1 01:32 0.0
28/02 18:01 0.6 -6.1 -7.3 01:32 0.0
28/02 18:00 0.6 -6.1 -7.3 01:32 0.0
28/02 17:59 0.5 -6.2 -8.3 01:32 0.0
28/02 17:58 0.5 -6.2 -9.4 01:32 0.0
28/02 17:57 0.6 -6 -8.2 01:32 0.0
28/02 17:56 0.6 -6 -8.2 01:32 0.0
28/02 17:55 0.5 -6.2 -7.8 01:32 0.0
28/02 17:54 0.5 -6.2 -8.8 01:32 0.0
28/02 17:53 0.6 -6.1 -8 01:32 0.0
28/02 17:52 0.6 -6 -7.5 01:32 0.0
28/02 17:51 0.6 -6 -7.5 01:32 0.0



    Load Time 0.069612 seconds